GEFSCGP_prec_meanprecacc_132.txt.gz
Total_Precipitation_Accumulation
0.00 0.01 0.01 0.02 0.02 0.03 0.06 0.09 0.18 0.23 0.17 0.18 0.33 0.51 0.64 0.73 0.95 1.09 1.08 1.04 1.07 1.35 1.71 1.90 2.18 2.53 3.13 3.69 4.28 4.40 4.46 3.87 3.20 2.78 2.44 2.28 2.04 1.79 1.72 1.62 1.45 1.34 1.22 1.17
0.02 0.04 0.03 0.02 0.03 0.05 0.09 0.12 0.20 0.22 0.15 0.16 0.33 0.60 0.78 0.85 0.82 0.89 0.89 0.92 0.97 1.36 1.76 2.14 2.64 2.91 2.85 3.22 3.80 3.82 3.39 2.98 2.58 2.21 2.00 1.83 1.71 1.52 1.36 1.19 1.10 1.02 0.99 1.02
0.04 0.05 0.03 0.03 0.05 0.10 0.12 0.14 0.18 0.16 0.15 0.21 0.39 0.74 1.01 0.94 0.69 0.63 0.66 0.70 0.84 1.18 1.59 1.99 2.42 2.72 2.64 2.86 2.90 2.50 2.21 2.04 1.88 1.67 1.56 1.54 1.45 1.26 1.00 0.82 0.73 0.72 0.73 0.73
0.03 0.03 0.03 0.04 0.06 0.07 0.08 0.08 0.07 0.07 0.12 0.28 0.42 0.93 1.28 1.09 0.81 0.65 0.63 0.72 0.79 0.87 1.03 1.31 1.54 1.88 2.08 2.07 1.94 1.81 1.65 1.54 1.54 1.48 1.37 1.32 1.08 0.92 0.75 0.61 0.61 0.63 0.60 0.56
0.03 0.03 0.03 0.04 0.05 0.05 0.05 0.04 0.05 0.08 0.12 0.27 0.47 0.79 1.16 1.15 1.08 0.90 0.74 0.72 0.64 0.57 0.63 0.78 0.88 1.05 1.26 1.37 1.38 1.32 1.43 1.47 1.43 1.33 1.28 1.26 1.05 0.85 0.69 0.63 0.67 0.65 0.61 0.54
0.05 0.05 0.04 0.03 0.04 0.04 0.04 0.05 0.12 0.25 0.37 0.69 0.68 0.72 1.04 1.00 0.93 0.91 0.72 0.55 0.44 0.39 0.46 0.55 0.56 0.60 0.71 0.80 0.90 0.98 1.09 1.21 1.20 1.14 1.12 1.15 1.06 0.89 0.72 0.63 0.60 0.55 0.52 0.50
0.14 0.12 0.09 0.05 0.05 0.05 0.05 0.09 0.32 0.69 1.00 1.16 0.72 0.68 0.88 0.75 0.76 0.79 0.57 0.34 0.28 0.29 0.32 0.38 0.40 0.42 0.48 0.53 0.61 0.68 0.78 0.88 0.92 0.93 0.96 0.98 1.01 0.87 0.71 0.56 0.51 0.46 0.40 0.41
0.15 0.18 0.10 0.05 0.05 0.06 0.06 0.07 0.19 0.34 0.49 0.68 0.72 1.07 1.00 0.62 0.58 0.47 0.28 0.17 0.16 0.24 0.23 0.23 0.25 0.28 0.34 0.32 0.39 0.47 0.51 0.57 0.64 0.77 0.86 0.80 0.82 0.71 0.60 0.62 0.54 0.43 0.34 0.36
0.07 0.06 0.05 0.05 0.05 0.07 0.05 0.05 0.06 0.10 0.15 0.42 0.79 1.14 0.93 0.50 0.45 0.30 0.18 0.11 0.11 0.13 0.15 0.14 0.14 0.15 0.20 0.22 0.25 0.31 0.42 0.50 0.52 0.56 0.67 0.70 0.68 0.62 0.61 0.61 0.56 0.44 0.38 0.33
0.04 0.02 0.04 0.05 0.05 0.07 0.06 0.06 0.06 0.07 0.14 0.32 0.65 1.00 1.00 0.68 0.50 0.30 0.20 0.14 0.15 0.14 0.12 0.11 0.09 0.11 0.16 0.19 0.22 0.30 0.39 0.48 0.55 0.52 0.51 0.52 0.62 0.64 0.67 0.64 0.52 0.46 0.41 0.37
0.04 0.02 0.03 0.04 0.06 0.08 0.08 0.08 0.09 0.10 0.12 0.21 0.48 0.70 0.57 0.52 0.38 0.26 0.23 0.24 0.18 0.13 0.09 0.07 0.07 0.09 0.15 0.19 0.22 0.28 0.35 0.49 0.59 0.52 0.49 0.53 0.60 0.63 0.65 0.73 0.66 0.51 0.45 0.39
0.04 0.03 0.04 0.08 0.11 0.10 0.10 0.10 0.11 0.14 0.16 0.17 0.26 0.43 0.35 0.37 0.30 0.29 0.23 0.22 0.16 0.13 0.11 0.09 0.08 0.11 0.17 0.23 0.26 0.31 0.39 0.47 0.53 0.50 0.47 0.50 0.56 0.58 0.59 0.62 0.63 0.56 0.46 0.39
0.06 0.05 0.07 0.21 0.31 0.22 0.14 0.10 0.11 0.13 0.13 0.15 0.29 0.44 0.36 0.32 0.27 0.22 0.17 0.16 0.18 0.20 0.17 0.14 0.14 0.20 0.21 0.23 0.30 0.35 0.43 0.47 0.49 0.58 0.56 0.51 0.52 0.49 0.50 0.52 0.51 0.52 0.52 0.52
0.07 0.06 0.08 0.22 0.33 0.35 0.26 0.17 0.16 0.13 0.14 0.16 0.23 0.39 0.35 0.38 0.35 0.21 0.21 0.23 0.25 0.26 0.19 0.15 0.18 0.21 0.27 0.28 0.32 0.37 0.43 0.46 0.52 0.53 0.51 0.50 0.53 0.53 0.58 0.57 0.54 0.53 0.52 0.53
0.09 0.06 0.05 0.09 0.16 0.19 0.21 0.20 0.18 0.13 0.11 0.16 0.19 0.28 0.32 0.33 0.40 0.30 0.31 0.39 0.42 0.27 0.16 0.13 0.14 0.20 0.30 0.35 0.35 0.36 0.40 0.43 0.50 0.56 0.56 0.51 0.48 0.51 0.57 0.58 0.55 0.52 0.51 0.49
0.15 0.11 0.10 0.10 0.12 0.12 0.14 0.17 0.15 0.11 0.09 0.08 0.12 0.24 0.30 0.36 0.41 0.35 0.31 0.30 0.40 0.33 0.21 0.19 0.18 0.19 0.26 0.31 0.31 0.30 0.32 0.38 0.45 0.54 0.62 0.65 0.59 0.55 0.57 0.59 0.58 0.57 0.57 0.61
0.28 0.22 0.21 0.20 0.16 0.16 0.22 0.19 0.16 0.13 0.10 0.11 0.19 0.28 0.35 0.42 0.39 0.38 0.38 0.32 0.31 0.26 0.21 0.23 0.26 0.27 0.27 0.32 0.31 0.30 0.29 0.35 0.51 0.61 0.63 0.72 0.79 0.71 0.75 0.77 0.72 0.69 0.70 0.76
0.37 0.38 0.31 0.27 0.30 0.36 0.25 0.19 0.18 0.20 0.21 0.20 0.24 0.33 0.46 0.54 0.45 0.40 0.42 0.41 0.35 0.25 0.24 0.25 0.24 0.25 0.25 0.27 0.30 0.30 0.32 0.36 0.51 0.63 0.64 0.74 0.86 0.82 0.85 0.86 0.81 0.84 0.91 0.95
0.38 0.46 0.46 0.41 0.41 0.41 0.33 0.29 0.30 0.36 0.42 0.36 0.39 0.52 0.54 0.45 0.40 0.42 0.40 0.35 0.31 0.27 0.26 0.26 0.26 0.26 0.27 0.30 0.31 0.34 0.44 0.54 0.62 0.72 0.79 0.87 0.99 1.05 1.09 1.05 1.06 1.12 1.21 1.25
0.33 0.44 0.54 0.54 0.57 0.62 0.52 0.42 0.39 0.50 0.77 0.61 0.50 0.52 0.49 0.44 0.52 0.52 0.39 0.34 0.29 0.26 0.27 0.29 0.33 0.30 0.32 0.36 0.41 0.47 0.60 0.77 0.88 0.89 0.90 0.97 1.14 1.23 1.25 1.26 1.29 1.34 1.42 1.46
0.49 0.52 0.55 0.61 0.67 0.60 0.52 0.47 0.50 0.86 1.12 0.79 0.67 0.69 0.73 0.71 0.63 0.52 0.41 0.39 0.34 0.26 0.27 0.31 0.35 0.38 0.44 0.49 0.57 0.66 0.76 0.88 0.89 0.89 0.95 1.03 1.24 1.46 1.45 1.51 1.50 1.49 1.52 1.58
0.65 0.67 0.66 0.72 0.89 0.92 0.61 0.56 0.85 1.09 1.00 0.97 0.87 0.87 0.86 0.74 0.56 0.46 0.40 0.39 0.31 0.27 0.27 0.31 0.35 0.38 0.46 0.55 0.68 0.78 0.81 0.85 0.90 0.94 1.01 1.13 1.35 1.42 1.46 1.57 1.59 1.65 1.67 1.64
0.69 0.79 0.80 0.87 1.04 0.94 0.77 0.81 0.84 0.90 0.97 0.96 0.83 0.78 0.77 0.71 0.60 0.51 0.45 0.42 0.39 0.34 0.30 0.31 0.33 0.39 0.46 0.56 0.72 0.88 0.89 0.90 0.92 0.95 1.01 1.10 1.21 1.27 1.37 1.43 1.39 1.43 1.51 1.53
0.73 0.67 0.85 1.12 1.13 1.00 0.87 0.81 0.79 0.70 0.69 0.70 0.66 0.56 0.55 0.54 0.50 0.42 0.36 0.40 0.45 0.48 0.40 0.34 0.32 0.38 0.45 0.53 0.68 0.81 0.85 0.88 0.89 0.86 0.86 0.95 1.10 1.14 1.20 1.33 1.34 1.40 1.46 1.51
0.77 0.78 0.95 1.23 1.25 1.12 1.04 0.93 0.90 0.75 0.69 0.59 0.55 0.50 0.49 0.41 0.39 0.35 0.31 0.30 0.32 0.37 0.35 0.30 0.29 0.36 0.42 0.52 0.68 0.79 0.85 0.91 0.95 0.91 0.86 0.88 0.97 1.05 1.11 1.24 1.33 1.35 1.36 1.31
0.59 0.79 1.02 1.16 1.10 1.07 1.08 0.87 0.84 0.87 0.75 0.61 0.54 0.47 0.42 0.36 0.31 0.28 0.26 0.23 0.22 0.27 0.31 0.31 0.34 0.38 0.41 0.48 0.59 0.70 0.85 1.02 1.06 1.00 0.93 0.89 0.88 0.95 1.01 1.09 1.09 1.01 0.99 0.94

GEFSCGP_prec_meanprecacc_138.txt.gz
Total_Precipitation_Accumulation
0.00 0.01 0.01 0.02 0.02 0.03 0.06 0.09 0.18 0.23 0.17 0.18 0.33 0.51 0.65 0.74 0.96 1.09 1.08 1.05 1.07 1.36 1.73 1.93 2.24 2.63 3.33 3.94 4.53 4.63 4.79 4.20 3.51 3.00 2.59 2.41 2.17 1.91 1.82 1.69 1.51 1.40 1.26 1.20
0.02 0.04 0.03 0.02 0.03 0.05 0.09 0.12 0.20 0.22 0.15 0.16 0.33 0.60 0.78 0.86 0.83 0.90 0.90 0.93 0.98 1.37 1.79 2.17 2.70 3.02 2.99 3.40 4.02 4.03 3.67 3.35 2.86 2.40 2.17 2.00 1.89 1.68 1.50 1.29 1.17 1.07 1.03 1.05
0.04 0.05 0.03 0.03 0.05 0.10 0.12 0.14 0.18 0.16 0.15 0.21 0.39 0.74 1.02 0.95 0.69 0.63 0.67 0.71 0.86 1.20 1.62 2.03 2.51 2.87 2.79 3.03 3.08 2.65 2.36 2.30 2.19 1.92 1.80 1.75 1.68 1.48 1.20 0.95 0.82 0.78 0.78 0.77
0.03 0.03 0.03 0.04 0.06 0.07 0.08 0.08 0.07 0.07 0.12 0.28 0.42 0.93 1.29 1.10 0.81 0.65 0.64 0.73 0.80 0.90 1.06 1.35 1.62 2.00 2.20 2.20 2.09 1.94 1.81 1.74 1.83 1.76 1.59 1.47 1.20 1.02 0.84 0.70 0.71 0.71 0.65 0.59
0.03 0.03 0.03 0.04 0.05 0.05 0.05 0.04 0.05 0.08 0.12 0.27 0.47 0.79 1.16 1.15 1.08 0.90 0.75 0.74 0.66 0.61 0.66 0.81 0.92 1.12 1.35 1.49 1.52 1.43 1.60 1.68 1.66 1.57 1.46 1.40 1.16 0.93 0.78 0.74 0.78 0.74 0.67 0.59
0.05 0.05 0.04 0.03 0.04 0.04 0.04 0.05 0.12 0.25 0.37 0.69 0.68 0.72 1.05 1.00 0.93 0.91 0.73 0.57 0.46 0.41 0.49 0.59 0.60 0.68 0.80 0.90 0.99 1.06 1.21 1.41 1.43 1.36 1.29 1.26 1.16 0.97 0.79 0.70 0.68 0.63 0.58 0.55
0.14 0.12 0.09 0.05 0.05 0.05 0.05 0.09 0.32 0.69 1.00 1.16 0.72 0.68 0.88 0.75 0.76 0.79 0.57 0.35 0.30 0.31 0.36 0.45 0.46 0.46 0.52 0.57 0.65 0.74 0.85 0.99 1.08 1.12 1.10 1.08 1.11 0.96 0.78 0.60 0.56 0.51 0.44 0.43
0.15 0.18 0.10 0.05 0.05 0.06 0.06 0.07 0.19 0.34 0.49 0.68 0.72 1.08 1.00 0.62 0.58 0.47 0.28 0.18 0.18 0.26 0.26 0.27 0.29 0.31 0.36 0.35 0.43 0.51 0.56 0.64 0.74 0.89 1.00 0.91 0.92 0.80 0.68 0.69 0.60 0.48 0.38 0.40
0.07 0.06 0.05 0.05 0.05 0.07 0.05 0.05 0.06 0.10 0.15 0.42 0.79 1.15 0.93 0.50 0.45 0.30 0.19 0.12 0.13 0.15 0.17 0.17 0.18 0.18 0.22 0.24 0.28 0.34 0.47 0.57 0.59 0.63 0.77 0.82 0.79 0.73 0.72 0.73 0.65 0.52 0.44 0.38
0.04 0.02 0.04 0.05 0.05 0.07 0.06 0.06 0.06 0.07 0.15 0.32 0.65 1.00 1.00 0.69 0.51 0.31 0.20 0.15 0.16 0.15 0.15 0.15 0.13 0.13 0.18 0.21 0.25 0.34 0.43 0.53 0.62 0.61 0.60 0.63 0.74 0.76 0.79 0.76 0.62 0.55 0.49 0.45
0.04 0.02 0.03 0.04 0.06 0.08 0.08 0.08 0.09 0.10 0.12 0.21 0.48 0.70 0.57 0.52 0.38 0.27 0.23 0.24 0.19 0.14 0.12 0.11 0.10 0.12 0.18 0.21 0.26 0.32 0.40 0.56 0.68 0.62 0.62 0.68 0.76 0.79 0.79 0.88 0.80 0.63 0.57 0.51
0.05 0.03 0.04 0.08 0.11 0.10 0.10 0.10 0.11 0.14 0.16 0.17 0.26 0.43 0.36 0.37 0.30 0.29 0.23 0.23 0.18 0.15 0.13 0.12 0.12 0.15 0.20 0.26 0.30 0.35 0.43 0.53 0.60 0.63 0.66 0.68 0.74 0.75 0.72 0.75 0.79 0.72 0.60 0.52
0.06 0.05 0.07 0.21 0.31 0.22 0.14 0.10 0.11 0.13 0.13 0.16 0.29 0.44 0.37 0.33 0.28 0.23 0.19 0.19 0.20 0.23 0.20 0.18 0.18 0.24 0.24 0.27 0.35 0.40 0.47 0.53 0.58 0.70 0.71 0.66 0.66 0.61 0.59 0.61 0.63 0.66 0.66 0.66
0.07 0.06 0.08 0.22 0.33 0.35 0.26 0.17 0.16 0.13 0.14 0.16 0.23 0.39 0.36 0.39 0.36 0.23 0.23 0.26 0.28 0.29 0.23 0.19 0.21 0.25 0.30 0.33 0.39 0.43 0.50 0.55 0.62 0.63 0.61 0.60 0.61 0.62 0.66 0.67 0.65 0.64 0.64 0.67
0.09 0.07 0.05 0.09 0.16 0.19 0.21 0.20 0.18 0.13 0.11 0.16 0.19 0.28 0.33 0.34 0.41 0.32 0.33 0.42 0.45 0.30 0.19 0.16 0.17 0.23 0.34 0.40 0.40 0.42 0.48 0.52 0.59 0.66 0.64 0.58 0.57 0.61 0.66 0.68 0.68 0.67 0.65 0.65
0.15 0.11 0.10 0.10 0.12 0.12 0.14 0.17 0.15 0.11 0.09 0.08 0.13 0.24 0.30 0.38 0.43 0.38 0.35 0.33 0.43 0.35 0.24 0.22 0.20 0.22 0.30 0.36 0.37 0.35 0.39 0.47 0.55 0.63 0.70 0.72 0.67 0.62 0.65 0.69 0.68 0.69 0.68 0.73
0.28 0.22 0.21 0.21 0.16 0.16 0.22 0.19 0.16 0.13 0.11 0.11 0.19 0.29 0.36 0.43 0.41 0.41 0.42 0.35 0.35 0.30 0.25 0.25 0.28 0.30 0.31 0.36 0.35 0.35 0.34 0.42 0.58 0.67 0.69 0.79 0.87 0.80 0.84 0.86 0.82 0.81 0.82 0.88
0.37 0.38 0.31 0.27 0.30 0.36 0.26 0.19 0.18 0.21 0.22 0.21 0.24 0.34 0.47 0.56 0.46 0.42 0.44 0.44 0.38 0.28 0.27 0.28 0.27 0.28 0.30 0.33 0.36 0.37 0.39 0.44 0.58 0.70 0.74 0.86 1.00 0.95 0.97 0.96 0.95 0.99 1.06 1.09
0.38 0.46 0.46 0.41 0.42 0.42 0.34 0.30 0.30 0.37 0.43 0.37 0.40 0.53 0.56 0.48 0.42 0.44 0.42 0.38 0.34 0.30 0.30 0.28 0.29 0.29 0.31 0.37 0.39 0.43 0.53 0.63 0.72 0.81 0.92 1.02 1.14 1.19 1.19 1.18 1.20 1.25 1.33 1.38
0.33 0.44 0.54 0.54 0.58 0.62 0.53 0.42 0.40 0.50 0.77 0.62 0.51 0.54 0.51 0.47 0.54 0.53 0.40 0.35 0.31 0.28 0.29 0.31 0.36 0.36 0.37 0.42 0.48 0.54 0.67 0.84 0.97 0.99 1.00 1.07 1.24 1.33 1.36 1.36 1.43 1.48 1.54 1.58
0.50 0.52 0.56 0.61 0.67 0.60 0.53 0.47 0.51 0.87 1.12 0.79 0.67 0.70 0.74 0.72 0.65 0.54 0.43 0.40 0.36 0.30 0.32 0.36 0.40 0.46 0.50 0.56 0.65 0.76 0.84 0.94 0.97 0.98 1.01 1.10 1.31 1.55 1.58 1.64 1.64 1.64 1.65 1.70
0.66 0.68 0.66 0.72 0.90 0.92 0.61 0.56 0.86 1.09 1.00 0.97 0.88 0.88 0.87 0.75 0.58 0.47 0.42 0.42 0.35 0.33 0.36 0.38 0.41 0.45 0.52 0.62 0.76 0.86 0.89 0.90 0.96 1.00 1.06 1.20 1.43 1.53 1.62 1.76 1.77 1.84 1.84 1.77
0.70 0.80 0.81 0.88 1.04 0.94 0.77 0.82 0.84 0.90 0.97 0.97 0.84 0.79 0.78 0.73 0.61 0.52 0.46 0.44 0.42 0.40 0.40 0.43 0.45 0.49 0.54 0.64 0.80 0.94 0.96 0.97 0.99 1.00 1.06 1.17 1.29 1.37 1.49 1.55 1.52 1.56 1.64 1.64
0.74 0.68 0.86 1.13 1.14 1.00 0.88 0.81 0.79 0.70 0.70 0.71 0.67 0.57 0.56 0.56 0.52 0.44 0.38 0.42 0.48 0.53 0.50 0.50 0.49 0.52 0.55 0.59 0.74 0.88 0.92 0.95 0.96 0.94 0.94 1.04 1.19 1.24 1.31 1.42 1.44 1.51 1.56 1.60
0.78 0.78 0.96 1.24 1.26 1.13 1.05 0.93 0.91 0.76 0.70 0.61 0.56 0.52 0.51 0.44 0.41 0.37 0.33 0.32 0.36 0.42 0.42 0.43 0.43 0.46 0.51 0.58 0.73 0.84 0.90 0.97 1.02 0.99 0.94 0.99 1.08 1.18 1.24 1.36 1.44 1.45 1.46 1.41
0.59 0.79 1.03 1.17 1.11 1.07 1.09 0.88 0.85 0.88 0.77 0.63 0.56 0.50 0.46 0.39 0.35 0.31 0.29 0.27 0.26 0.33 0.39 0.41 0.44 0.47 0.48 0.53 0.63 0.73 0.89 1.06 1.12 1.06 0.99 0.95 0.96 1.05 1.11 1.20 1.20 1.10 1.07 1.01

GEFSCGP_prec_meanprecacc_144.txt.gz
Total_Precipitation_Accumulation
0.00 0.01 0.01 0.02 0.02 0.03 0.06 0.09 0.18 0.23 0.17 0.18 0.33 0.51 0.65 0.74 0.96 1.09 1.08 1.05 1.08 1.37 1.74 1.94 2.25 2.66 3.37 4.01 4.61 4.71 4.88 4.32 3.63 3.09 2.68 2.51 2.25 1.98 1.90 1.77 1.60 1.47 1.34 1.28
0.02 0.04 0.03 0.02 0.03 0.05 0.09 0.12 0.20 0.22 0.15 0.16 0.33 0.60 0.78 0.86 0.83 0.90 0.90 0.93 0.98 1.38 1.79 2.18 2.71 3.04 3.03 3.48 4.12 4.12 3.75 3.43 2.96 2.49 2.27 2.09 1.97 1.75 1.56 1.37 1.25 1.14 1.08 1.11
0.04 0.05 0.03 0.03 0.05 0.10 0.12 0.14 0.18 0.16 0.15 0.21 0.39 0.74 1.02 0.95 0.69 0.63 0.67 0.71 0.86 1.20 1.62 2.03 2.52 2.89 2.84 3.13 3.21 2.76 2.46 2.41 2.30 2.03 1.90 1.85 1.78 1.61 1.31 1.04 0.91 0.86 0.83 0.82
0.03 0.03 0.03 0.04 0.06 0.07 0.08 0.08 0.07 0.07 0.12 0.28 0.42 0.93 1.29 1.10 0.82 0.66 0.64 0.74 0.81 0.91 1.07 1.36 1.64 2.04 2.28 2.33 2.19 2.02 1.89 1.85 1.96 1.91 1.70 1.56 1.29 1.14 0.95 0.79 0.77 0.77 0.71 0.67
0.03 0.03 0.03 0.04 0.05 0.05 0.05 0.04 0.05 0.08 0.12 0.27 0.47 0.79 1.16 1.15 1.08 0.90 0.75 0.74 0.67 0.62 0.69 0.84 0.94 1.17 1.43 1.59 1.60 1.49 1.67 1.77 1.78 1.71 1.63 1.54 1.29 1.07 0.92 0.86 0.88 0.82 0.75 0.67
0.05 0.05 0.04 0.03 0.04 0.04 0.04 0.05 0.12 0.25 0.37 0.69 0.68 0.72 1.05 1.00 0.93 0.91 0.73 0.57 0.47 0.42 0.50 0.60 0.62 0.70 0.83 0.94 1.03 1.10 1.27 1.48 1.53 1.48 1.44 1.42 1.30 1.13 0.94 0.83 0.80 0.73 0.68 0.63
0.14 0.12 0.09 0.05 0.05 0.05 0.05 0.09 0.32 0.69 1.00 1.16 0.72 0.68 0.88 0.75 0.76 0.79 0.57 0.35 0.30 0.31 0.36 0.45 0.46 0.47 0.53 0.58 0.67 0.77 0.90 1.04 1.17 1.22 1.23 1.21 1.27 1.12 0.92 0.72 0.66 0.61 0.52 0.51
0.15 0.18 0.10 0.05 0.05 0.06 0.06 0.07 0.19 0.34 0.49 0.68 0.72 1.08 1.00 0.62 0.58 0.47 0.28 0.18 0.18 0.26 0.26 0.28 0.29 0.32 0.36 0.36 0.44 0.53 0.59 0.68 0.81 0.99 1.12 1.03 1.06 0.94 0.81 0.82 0.70 0.57 0.46 0.48
0.07 0.06 0.05 0.05 0.05 0.07 0.05 0.05 0.06 0.10 0.15 0.42 0.79 1.15 0.93 0.50 0.45 0.30 0.19 0.12 0.13 0.15 0.18 0.18 0.19 0.18 0.23 0.25 0.29 0.37 0.49 0.62 0.67 0.74 0.90 0.95 0.91 0.85 0.83 0.84 0.77 0.63 0.55 0.47
0.04 0.02 0.04 0.05 0.05 0.07 0.06 0.06 0.06 0.07 0.15 0.32 0.65 1.00 1.00 0.69 0.51 0.31 0.20 0.15 0.17 0.16 0.16 0.15 0.13 0.13 0.18 0.22 0.26 0.36 0.46 0.59 0.70 0.70 0.70 0.74 0.85 0.87 0.89 0.86 0.72 0.65 0.60 0.55
0.04 0.02 0.03 0.04 0.06 0.08 0.08 0.08 0.09 0.10 0.12 0.21 0.48 0.70 0.57 0.52 0.38 0.27 0.23 0.25 0.20 0.15 0.12 0.11 0.10 0.13 0.19 0.22 0.27 0.34 0.44 0.65 0.79 0.70 0.69 0.76 0.83 0.87 0.87 0.96 0.88 0.72 0.65 0.59
0.05 0.03 0.04 0.08 0.11 0.10 0.10 0.10 0.11 0.14 0.16 0.17 0.26 0.43 0.36 0.37 0.30 0.29 0.23 0.24 0.19 0.16 0.15 0.13 0.13 0.15 0.20 0.27 0.31 0.38 0.46 0.60 0.69 0.70 0.72 0.73 0.78 0.80 0.79 0.82 0.87 0.83 0.71 0.61
0.06 0.05 0.07 0.21 0.31 0.22 0.14 0.10 0.11 0.13 0.13 0.16 0.29 0.44 0.37 0.33 0.28 0.23 0.19 0.19 0.21 0.23 0.21 0.18 0.19 0.24 0.25 0.28 0.36 0.42 0.49 0.56 0.62 0.73 0.74 0.70 0.70 0.65 0.66 0.69 0.72 0.77 0.79 0.77
0.07 0.06 0.08 0.22 0.33 0.35 0.26 0.17 0.16 0.13 0.14 0.16 0.23 0.39 0.36 0.39 0.36 0.23 0.23 0.27 0.29 0.30 0.24 0.20 0.22 0.26 0.32 0.35 0.40 0.45 0.51 0.56 0.64 0.65 0.65 0.64 0.67 0.68 0.73 0.75 0.74 0.74 0.74 0.77
0.09 0.07 0.05 0.09 0.16 0.19 0.21 0.20 0.18 0.13 0.11 0.16 0.19 0.29 0.33 0.34 0.41 0.32 0.34 0.43 0.46 0.32 0.21 0.18 0.19 0.25 0.36 0.43 0.42 0.44 0.50 0.55 0.62 0.70 0.67 0.62 0.63 0.69 0.73 0.75 0.75 0.75 0.73 0.73
0.15 0.11 0.10 0.10 0.12 0.12 0.14 0.17 0.15 0.11 0.09 0.08 0.13 0.25 0.30 0.38 0.43 0.38 0.35 0.35 0.45 0.38 0.26 0.24 0.22 0.24 0.32 0.39 0.40 0.37 0.42 0.51 0.62 0.70 0.76 0.76 0.73 0.68 0.71 0.75 0.74 0.76 0.77 0.83
0.28 0.22 0.21 0.21 0.16 0.16 0.22 0.19 0.16 0.13 0.11 0.11 0.19 0.29 0.37 0.44 0.41 0.41 0.42 0.37 0.37 0.33 0.27 0.27 0.30 0.31 0.33 0.37 0.37 0.37 0.36 0.48 0.67 0.77 0.77 0.85 0.91 0.84 0.89 0.92 0.88 0.89 0.92 0.98
0.37 0.38 0.31 0.28 0.30 0.36 0.26 0.19 0.18 0.21 0.22 0.21 0.24 0.34 0.48 0.56 0.47 0.42 0.45 0.45 0.40 0.30 0.28 0.30 0.29 0.30 0.31 0.34 0.37 0.39 0.41 0.48 0.67 0.80 0.81 0.91 1.05 1.00 1.01 1.03 1.03 1.09 1.17 1.20
0.38 0.46 0.46 0.41 0.42 0.42 0.34 0.30 0.30 0.37 0.43 0.37 0.40 0.53 0.56 0.48 0.43 0.44 0.42 0.38 0.35 0.31 0.30 0.29 0.30 0.31 0.33 0.38 0.40 0.44 0.55 0.67 0.77 0.89 0.99 1.09 1.21 1.28 1.26 1.25 1.34 1.39 1.43 1.48
0.34 0.44 0.54 0.55 0.58 0.63 0.53 0.43 0.40 0.50 0.78 0.62 0.51 0.54 0.52 0.48 0.55 0.54 0.41 0.35 0.31 0.29 0.30 0.32 0.37 0.36 0.37 0.43 0.49 0.55 0.69 0.87 1.00 1.04 1.07 1.14 1.31 1.40 1.43 1.43 1.55 1.66 1.68 1.69
0.50 0.52 0.56 0.61 0.67 0.61 0.53 0.47 0.51 0.88 1.13 0.79 0.67 0.70 0.75 0.73 0.66 0.55 0.43 0.41 0.37 0.31 0.33 0.36 0.41 0.46 0.51 0.57 0.67 0.79 0.87 0.97 1.00 1.01 1.06 1.15 1.36 1.62 1.66 1.71 1.76 1.82 1.84 1.86
0.66 0.68 0.66 0.72 0.90 0.92 0.61 0.56 0.86 1.10 1.00 0.97 0.88 0.88 0.88 0.76 0.58 0.48 0.43 0.43 0.36 0.34 0.37 0.40 0.42 0.46 0.54 0.64 0.79 0.90 0.94 0.96 1.01 1.04 1.11 1.24 1.49 1.59 1.68 1.82 1.86 1.97 2.02 1.98
0.71 0.81 0.81 0.88 1.05 0.95 0.77 0.82 0.85 0.90 0.97 0.97 0.84 0.80 0.79 0.74 0.62 0.54 0.48 0.45 0.43 0.41 0.42 0.46 0.47 0.51 0.57 0.67 0.84 1.00 1.01 1.02 1.03 1.04 1.09 1.20 1.34 1.43 1.55 1.61 1.59 1.67 1.77 1.77
0.74 0.68 0.87 1.13 1.14 1.00 0.88 0.82 0.79 0.71 0.70 0.72 0.67 0.58 0.58 0.57 0.53 0.45 0.39 0.43 0.50 0.55 0.51 0.53 0.52 0.55 0.59 0.63 0.79 0.92 0.97 1.01 1.01 0.99 0.97 1.06 1.23 1.30 1.36 1.47 1.49 1.58 1.64 1.68
0.78 0.79 0.97 1.25 1.27 1.14 1.05 0.94 0.91 0.76 0.70 0.61 0.58 0.54 0.52 0.45 0.43 0.39 0.35 0.34 0.38 0.44 0.44 0.46 0.47 0.51 0.55 0.61 0.77 0.90 0.94 1.00 1.04 1.02 0.97 1.01 1.12 1.22 1.29 1.40 1.49 1.50 1.53 1.50
0.60 0.80 1.03 1.17 1.11 1.08 1.10 0.88 0.86 0.89 0.77 0.64 0.58 0.53 0.48 0.42 0.37 0.33 0.31 0.30 0.29 0.35 0.42 0.44 0.48 0.50 0.50 0.56 0.67 0.77 0.93 1.09 1.15 1.08 1.01 0.98 1.00 1.10 1.16 1.25 1.25 1.16 1.13 1.09

GEFSCGP_prec_meanprecacc_150.txt.gz
Total_Precipitation_Accumulation
0.00 0.01 0.01 0.02 0.02 0.03 0.06 0.09 0.18 0.23 0.17 0.18 0.33 0.51 0.65 0.74 0.96 1.10 1.09 1.05 1.08 1.37 1.78 1.98 2.26 2.66 3.39 4.05 4.66 4.76 4.94 4.39 3.71 3.16 2.76 2.59 2.35 2.06 2.00 1.87 1.68 1.55 1.38 1.32
0.02 0.04 0.03 0.02 0.03 0.05 0.09 0.12 0.20 0.22 0.15 0.16 0.33 0.60 0.78 0.86 0.83 0.90 0.92 0.94 0.98 1.38 1.80 2.19 2.72 3.05 3.05 3.51 4.16 4.17 3.80 3.49 3.04 2.56 2.35 2.18 2.07 1.82 1.63 1.45 1.34 1.21 1.12 1.13
0.04 0.05 0.03 0.03 0.05 0.10 0.12 0.14 0.18 0.16 0.15 0.21 0.39 0.74 1.02 0.96 0.69 0.63 0.68 0.72 0.86 1.21 1.63 2.04 2.53 2.92 2.86 3.16 3.25 2.82 2.51 2.47 2.38 2.12 1.99 1.94 1.88 1.71 1.40 1.12 0.98 0.92 0.88 0.85
0.03 0.03 0.03 0.04 0.06 0.07 0.08 0.08 0.07 0.07 0.13 0.28 0.42 0.93 1.31 1.11 0.82 0.66 0.64 0.74 0.81 0.91 1.09 1.38 1.66 2.07 2.31 2.36 2.23 2.06 1.95 1.91 2.03 1.99 1.78 1.63 1.35 1.22 1.04 0.86 0.83 0.84 0.77 0.71
0.03 0.03 0.03 0.04 0.05 0.05 0.05 0.04 0.05 0.08 0.12 0.27 0.47 0.79 1.17 1.16 1.10 0.93 0.76 0.75 0.67 0.64 0.73 0.89 0.98 1.21 1.49 1.65 1.65 1.54 1.74 1.82 1.83 1.79 1.72 1.65 1.39 1.18 1.05 0.99 1.00 0.92 0.83 0.72
0.05 0.05 0.04 0.03 0.04 0.04 0.04 0.05 0.12 0.25 0.37 0.69 0.68 0.72 1.05 1.01 0.96 0.93 0.73 0.58 0.48 0.42 0.53 0.69 0.71 0.77 0.91 1.00 1.07 1.14 1.35 1.54 1.58 1.54 1.54 1.54 1.42 1.26 1.09 0.99 0.93 0.83 0.78 0.71
0.14 0.12 0.09 0.05 0.05 0.05 0.05 0.09 0.32 0.69 1.00 1.16 0.72 0.69 0.88 0.76 0.77 0.82 0.60 0.36 0.30 0.32 0.37 0.47 0.49 0.50 0.57 0.62 0.70 0.79 0.96 1.11 1.22 1.27 1.29 1.31 1.40 1.26 1.05 0.86 0.83 0.75 0.65 0.61
0.15 0.18 0.10 0.05 0.05 0.06 0.06 0.07 0.19 0.34 0.49 0.69 0.73 1.08 1.01 0.63 0.59 0.50 0.30 0.18 0.18 0.26 0.26 0.28 0.30 0.33 0.38 0.38 0.47 0.56 0.65 0.75 0.86 1.04 1.18 1.10 1.17 1.06 0.92 0.95 0.88 0.75 0.60 0.60
0.07 0.06 0.05 0.05 0.05 0.07 0.05 0.05 0.06 0.10 0.15 0.43 0.81 1.16 0.93 0.50 0.45 0.30 0.19 0.13 0.14 0.15 0.18 0.18 0.19 0.18 0.23 0.27 0.32 0.42 0.55 0.68 0.72 0.79 0.96 1.03 1.00 0.96 0.95 0.97 0.93 0.81 0.71 0.61
0.04 0.02 0.04 0.05 0.05 0.07 0.06 0.06 0.06 0.07 0.15 0.33 0.66 1.01 1.03 0.72 0.51 0.31 0.20 0.17 0.23 0.18 0.21 0.18 0.14 0.14 0.19 0.24 0.29 0.40 0.51 0.66 0.78 0.78 0.77 0.82 0.96 0.99 1.04 1.01 0.86 0.79 0.74 0.69
0.04 0.02 0.03 0.04 0.06 0.08 0.08 0.08 0.09 0.10 0.12 0.21 0.49 0.72 0.62 0.58 0.40 0.27 0.24 0.27 0.21 0.17 0.19 0.16 0.12 0.14 0.19 0.23 0.28 0.37 0.48 0.71 0.85 0.76 0.76 0.85 0.93 0.98 1.00 1.12 1.03 0.87 0.80 0.74
0.05 0.03 0.04 0.08 0.11 0.10 0.10 0.10 0.11 0.14 0.16 0.17 0.26 0.45 0.38 0.41 0.32 0.30 0.24 0.25 0.20 0.18 0.18 0.19 0.16 0.16 0.21 0.27 0.32 0.40 0.49 0.65 0.74 0.74 0.79 0.84 0.88 0.91 0.90 0.94 0.99 0.98 0.86 0.76
0.06 0.05 0.07 0.21 0.31 0.22 0.14 0.10 0.11 0.13 0.13 0.16 0.30 0.47 0.39 0.39 0.33 0.25 0.20 0.20 0.23 0.25 0.23 0.22 0.21 0.26 0.27 0.31 0.39 0.45 0.54 0.61 0.67 0.79 0.82 0.78 0.78 0.74 0.75 0.79 0.84 0.91 0.95 0.94
0.07 0.06 0.08 0.22 0.33 0.35 0.26 0.17 0.16 0.13 0.14 0.17 0.24 0.41 0.38 0.45 0.41 0.26 0.26 0.31 0.31 0.31 0.26 0.22 0.24 0.27 0.33 0.37 0.42 0.49 0.57 0.64 0.70 0.71 0.70 0.70 0.73 0.75 0.81 0.84 0.86 0.89 0.91 0.96
0.09 0.07 0.05 0.09 0.17 0.20 0.21 0.20 0.18 0.13 0.11 0.17 0.22 0.33 0.41 0.40 0.44 0.35 0.36 0.47 0.51 0.35 0.24 0.21 0.22 0.28 0.39 0.46 0.45 0.48 0.56 0.65 0.70 0.75 0.72 0.67 0.70 0.76 0.80 0.82 0.84 0.84 0.86 0.87
0.15 0.11 0.10 0.10 0.13 0.14 0.15 0.17 0.15 0.11 0.09 0.09 0.17 0.31 0.37 0.41 0.45 0.41 0.37 0.38 0.50 0.41 0.29 0.26 0.25 0.27 0.35 0.42 0.43 0.41 0.46 0.56 0.67 0.75 0.80 0.82 0.79 0.75 0.79 0.83 0.82 0.84 0.88 0.97
0.28 0.22 0.21 0.21 0.16 0.18 0.24 0.19 0.16 0.13 0.11 0.12 0.22 0.33 0.43 0.47 0.43 0.43 0.44 0.38 0.39 0.35 0.29 0.31 0.32 0.33 0.36 0.40 0.39 0.40 0.41 0.53 0.73 0.83 0.84 0.91 0.99 0.91 0.97 1.00 0.96 0.96 1.00 1.10
0.37 0.38 0.31 0.28 0.31 0.37 0.27 0.20 0.19 0.21 0.22 0.21 0.24 0.35 0.52 0.61 0.49 0.43 0.46 0.47 0.41 0.32 0.30 0.32 0.31 0.31 0.34 0.36 0.40 0.41 0.44 0.52 0.71 0.87 0.92 1.06 1.19 1.11 1.12 1.12 1.11 1.16 1.25 1.29
0.38 0.46 0.46 0.42 0.43 0.44 0.35 0.30 0.30 0.37 0.44 0.38 0.41 0.54 0.57 0.49 0.44 0.45 0.43 0.40 0.37 0.33 0.32 0.31 0.33 0.34 0.35 0.40 0.43 0.47 0.59 0.70 0.81 0.95 1.09 1.24 1.37 1.42 1.38 1.33 1.41 1.46 1.50 1.56
0.34 0.45 0.54 0.55 0.61 0.68 0.59 0.45 0.40 0.51 0.79 0.63 0.52 0.57 0.53 0.49 0.59 0.58 0.42 0.37 0.32 0.30 0.31 0.34 0.39 0.40 0.39 0.44 0.51 0.58 0.73 0.91 1.03 1.08 1.12 1.22 1.39 1.48 1.50 1.48 1.60 1.72 1.75 1.77
0.51 0.52 0.56 0.62 0.72 0.69 0.60 0.51 0.53 0.90 1.16 0.80 0.68 0.72 0.76 0.75 0.69 0.59 0.44 0.42 0.38 0.32 0.34 0.38 0.43 0.50 0.55 0.60 0.70 0.82 0.91 1.01 1.04 1.04 1.09 1.18 1.41 1.68 1.71 1.76 1.81 1.89 1.92 1.94
0.67 0.68 0.67 0.73 0.94 1.01 0.66 0.59 0.89 1.14 1.03 0.99 0.89 0.89 0.89 0.77 0.60 0.50 0.44 0.44 0.38 0.36 0.39 0.41 0.45 0.50 0.58 0.68 0.84 0.94 0.97 0.99 1.04 1.07 1.14 1.28 1.53 1.63 1.72 1.87 1.92 2.05 2.14 2.10
0.72 0.82 0.82 0.90 1.09 0.99 0.79 0.84 0.87 0.93 1.00 0.99 0.86 0.82 0.80 0.75 0.64 0.55 0.48 0.46 0.44 0.42 0.43 0.48 0.50 0.54 0.62 0.73 0.91 1.05 1.04 1.06 1.06 1.07 1.12 1.23 1.37 1.47 1.60 1.67 1.66 1.74 1.85 1.86
0.77 0.69 0.88 1.16 1.16 1.02 0.89 0.83 0.82 0.76 0.74 0.73 0.68 0.60 0.59 0.58 0.53 0.45 0.40 0.44 0.51 0.57 0.54 0.56 0.56 0.59 0.64 0.69 0.86 0.99 1.02 1.06 1.07 1.03 1.00 1.09 1.27 1.34 1.41 1.52 1.55 1.64 1.70 1.74
0.87 0.81 0.99 1.29 1.30 1.16 1.07 0.95 0.93 0.78 0.72 0.62 0.58 0.55 0.53 0.45 0.43 0.39 0.35 0.35 0.40 0.47 0.48 0.49 0.51 0.55 0.58 0.64 0.81 0.95 0.98 1.04 1.08 1.05 1.01 1.05 1.16 1.25 1.33 1.44 1.53 1.55 1.58 1.56
0.71 0.87 1.08 1.22 1.13 1.10 1.13 0.90 0.88 0.90 0.78 0.65 0.59 0.54 0.49 0.42 0.38 0.34 0.33 0.32 0.32 0.39 0.46 0.48 0.52 0.53 0.52 0.58 0.69 0.79 0.96 1.12 1.16 1.10 1.03 1.01 1.03 1.13 1.20 1.28 1.28 1.20 1.19 1.16

GEFSCGP_prec_meanprecacc_156.txt.gz
Total_Precipitation_Accumulation
0.00 0.01 0.01 0.02 0.02 0.03 0.06 0.09 0.18 0.24 0.17 0.19 0.34 0.52 0.66 0.77 0.99 1.13 1.15 1.09 1.10 1.41 1.83 2.05 2.33 2.73 3.47 4.16 4.79 4.85 5.01 4.44 3.79 3.22 2.81 2.64 2.39 2.14 2.10 1.96 1.77 1.63 1.44 1.36
0.02 0.04 0.03 0.02 0.03 0.05 0.09 0.12 0.20 0.22 0.15 0.17 0.34 0.60 0.79 0.88 0.86 0.93 0.96 1.00 1.08 1.46 1.92 2.28 2.80 3.13 3.12 3.61 4.27 4.25 3.87 3.55 3.09 2.62 2.40 2.22 2.12 1.87 1.69 1.52 1.42 1.27 1.17 1.18
0.04 0.05 0.03 0.03 0.05 0.10 0.12 0.14 0.18 0.16 0.15 0.22 0.40 0.75 1.03 0.97 0.74 0.67 0.72 0.77 0.92 1.27 1.77 2.20 2.61 2.99 2.94 3.25 3.33 2.89 2.59 2.53 2.43 2.20 2.08 2.02 1.95 1.76 1.46 1.18 1.06 0.99 0.93 0.90
0.03 0.03 0.03 0.04 0.06 0.07 0.08 0.08 0.07 0.07 0.13 0.28 0.42 0.94 1.32 1.12 0.84 0.70 0.70 0.81 0.88 0.98 1.16 1.47 1.79 2.21 2.40 2.42 2.29 2.15 2.04 1.99 2.11 2.08 1.86 1.70 1.40 1.25 1.09 0.92 0.92 0.92 0.82 0.75
0.03 0.03 0.03 0.04 0.05 0.05 0.05 0.04 0.05 0.08 0.13 0.27 0.47 0.79 1.18 1.17 1.12 0.97 0.83 0.86 0.78 0.72 0.79 0.99 1.10 1.31 1.59 1.76 1.74 1.64 1.84 1.91 1.90 1.84 1.77 1.71 1.45 1.22 1.10 1.08 1.11 1.02 0.90 0.77
0.05 0.05 0.04 0.03 0.04 0.04 0.04 0.05 0.12 0.25 0.37 0.69 0.68 0.73 1.07 1.02 0.98 0.96 0.78 0.66 0.61 0.56 0.61 0.78 0.84 0.88 1.00 1.10 1.16 1.23 1.45 1.64 1.66 1.61 1.58 1.58 1.48 1.33 1.16 1.07 1.01 0.93 0.88 0.80
0.14 0.12 0.09 0.05 0.05 0.05 0.05 0.09 0.32 0.69 1.00 1.17 0.72 0.70 0.89 0.78 0.79 0.85 0.65 0.42 0.38 0.42 0.44 0.53 0.59 0.64 0.70 0.72 0.78 0.88 1.06 1.22 1.33 1.38 1.38 1.38 1.47 1.33 1.13 0.94 0.92 0.86 0.75 0.71
0.15 0.18 0.10 0.05 0.05 0.06 0.06 0.07 0.19 0.34 0.49 0.70 0.74 1.09 1.02 0.65 0.62 0.53 0.35 0.24 0.22 0.34 0.35 0.34 0.36 0.39 0.48 0.48 0.55 0.64 0.72 0.82 0.94 1.13 1.27 1.18 1.23 1.12 0.99 1.04 0.97 0.84 0.69 0.70
0.07 0.06 0.05 0.05 0.05 0.07 0.05 0.05 0.06 0.10 0.16 0.44 0.82 1.17 0.96 0.55 0.50 0.36 0.24 0.18 0.20 0.24 0.30 0.29 0.26 0.25 0.29 0.31 0.36 0.46 0.61 0.74 0.78 0.86 1.06 1.13 1.06 1.01 1.03 1.07 1.01 0.91 0.82 0.73
0.04 0.02 0.04 0.05 0.05 0.07 0.06 0.06 0.06 0.07 0.15 0.33 0.69 1.05 1.08 0.80 0.57 0.35 0.26 0.25 0.30 0.27 0.32 0.35 0.26 0.21 0.25 0.27 0.31 0.42 0.53 0.70 0.84 0.83 0.83 0.88 1.03 1.08 1.13 1.11 0.94 0.86 0.83 0.80
0.04 0.02 0.03 0.04 0.06 0.08 0.08 0.08 0.09 0.10 0.12 0.21 0.52 0.76 0.66 0.63 0.45 0.33 0.34 0.40 0.28 0.24 0.27 0.30 0.23 0.21 0.25 0.27 0.32 0.40 0.50 0.74 0.89 0.81 0.82 0.90 1.00 1.06 1.10 1.23 1.14 0.98 0.90 0.85
0.05 0.03 0.04 0.08 0.11 0.10 0.10 0.10 0.11 0.14 0.16 0.17 0.27 0.48 0.40 0.45 0.41 0.48 0.53 0.48 0.36 0.32 0.27 0.29 0.27 0.30 0.30 0.34 0.37 0.45 0.53 0.69 0.79 0.80 0.84 0.88 0.94 0.97 0.98 1.03 1.08 1.08 0.97 0.88
0.06 0.05 0.07 0.21 0.31 0.22 0.14 0.10 0.11 0.13 0.13 0.16 0.31 0.50 0.42 0.45 0.46 0.49 0.49 0.45 0.47 0.47 0.40 0.37 0.36 0.42 0.38 0.38 0.44 0.50 0.59 0.67 0.76 0.91 0.89 0.84 0.84 0.79 0.79 0.85 0.91 0.99 1.05 1.06
0.07 0.06 0.08 0.22 0.33 0.35 0.26 0.17 0.16 0.13 0.14 0.17 0.24 0.44 0.42 0.54 0.65 0.52 0.53 0.48 0.45 0.44 0.40 0.34 0.32 0.35 0.42 0.45 0.48 0.55 0.63 0.71 0.79 0.79 0.79 0.81 0.79 0.79 0.84 0.90 0.92 0.95 0.99 1.06
0.09 0.07 0.05 0.09 0.17 0.20 0.21 0.20 0.18 0.13 0.12 0.17 0.22 0.34 0.47 0.58 0.68 0.57 0.54 0.59 0.59 0.44 0.35 0.31 0.28 0.36 0.48 0.53 0.52 0.53 0.61 0.72 0.81 0.85 0.81 0.75 0.77 0.82 0.85 0.87 0.88 0.90 0.95 0.98
0.15 0.11 0.10 0.11 0.14 0.14 0.16 0.18 0.15 0.11 0.09 0.09 0.18 0.34 0.49 0.61 0.63 0.58 0.48 0.45 0.56 0.49 0.35 0.31 0.32 0.40 0.47 0.49 0.48 0.44 0.49 0.59 0.70 0.79 0.85 0.89 0.86 0.81 0.84 0.87 0.87 0.90 0.96 1.06
0.28 0.22 0.21 0.21 0.17 0.18 0.25 0.20 0.17 0.14 0.12 0.13 0.23 0.35 0.51 0.63 0.55 0.58 0.55 0.46 0.44 0.39 0.33 0.40 0.43 0.43 0.44 0.46 0.44 0.43 0.43 0.54 0.74 0.85 0.86 0.96 1.04 0.96 1.02 1.05 1.03 1.03 1.07 1.18
0.38 0.39 0.31 0.28 0.31 0.37 0.28 0.21 0.21 0.23 0.24 0.22 0.26 0.37 0.58 0.74 0.63 0.56 0.56 0.53 0.46 0.36 0.35 0.37 0.38 0.37 0.39 0.41 0.44 0.45 0.47 0.53 0.72 0.89 0.94 1.10 1.25 1.17 1.19 1.20 1.22 1.27 1.34 1.37
0.39 0.47 0.47 0.42 0.43 0.45 0.36 0.32 0.34 0.42 0.50 0.43 0.44 0.56 0.61 0.57 0.54 0.56 0.51 0.45 0.42 0.37 0.36 0.34 0.36 0.38 0.40 0.44 0.47 0.50 0.63 0.74 0.84 0.97 1.11 1.28 1.44 1.51 1.49 1.45 1.54 1.58 1.59 1.63
0.34 0.45 0.54 0.56 0.62 0.70 0.63 0.51 0.47 0.59 0.89 0.73 0.59 0.61 0.60 0.57 0.68 0.66 0.47 0.42 0.37 0.33 0.34 0.37 0.43 0.44 0.43 0.49 0.54 0.61 0.76 0.95 1.06 1.11 1.14 1.25 1.43 1.54 1.58 1.59 1.73 1.86 1.87 1.86
0.52 0.53 0.56 0.63 0.73 0.71 0.63 0.57 0.61 1.02 1.30 0.94 0.81 0.82 0.85 0.82 0.75 0.62 0.48 0.46 0.41 0.35 0.37 0.41 0.46 0.53 0.58 0.63 0.72 0.84 0.93 1.03 1.06 1.07 1.11 1.20 1.43 1.71 1.75 1.81 1.88 1.97 2.00 2.01
0.69 0.70 0.68 0.74 0.96 1.04 0.67 0.61 0.93 1.22 1.15 1.18 1.13 1.10 1.04 0.89 0.70 0.55 0.48 0.47 0.40 0.38 0.42 0.44 0.47 0.53 0.61 0.71 0.87 0.97 0.99 1.01 1.06 1.08 1.15 1.29 1.54 1.65 1.74 1.89 1.94 2.09 2.18 2.14
0.76 0.86 0.85 0.94 1.12 1.02 0.81 0.87 0.91 0.98 1.09 1.14 1.07 1.05 0.99 0.92 0.76 0.62 0.52 0.47 0.45 0.44 0.45 0.50 0.52 0.56 0.64 0.75 0.94 1.08 1.07 1.07 1.07 1.08 1.13 1.24 1.38 1.48 1.62 1.69 1.68 1.77 1.88 1.89
0.85 0.76 0.96 1.26 1.24 1.07 0.93 0.86 0.87 0.83 0.88 0.88 0.83 0.77 0.75 0.71 0.63 0.51 0.43 0.46 0.52 0.58 0.55 0.58 0.58 0.62 0.66 0.72 0.89 1.03 1.05 1.08 1.08 1.04 1.01 1.10 1.28 1.36 1.43 1.55 1.57 1.66 1.73 1.78
1.03 0.99 1.17 1.49 1.47 1.28 1.15 1.00 0.97 0.83 0.82 0.79 0.74 0.69 0.62 0.53 0.51 0.47 0.40 0.38 0.41 0.48 0.49 0.51 0.54 0.58 0.61 0.67 0.85 0.99 1.02 1.06 1.09 1.06 1.02 1.08 1.19 1.28 1.36 1.48 1.56 1.58 1.60 1.59
0.94 1.09 1.33 1.50 1.39 1.31 1.28 0.99 0.93 0.96 0.87 0.75 0.71 0.65 0.58 0.49 0.43 0.41 0.38 0.35 0.34 0.40 0.47 0.50 0.54 0.56 0.55 0.60 0.72 0.82 1.00 1.15 1.20 1.12 1.05 1.04 1.05 1.14 1.21 1.30 1.30 1.22 1.21 1.19

GEFSCGP_prec_meanprecacc_162.txt.gz
Total_Precipitation_Accumulation
0.00 0.01 0.01 0.02 0.02 0.03 0.06 0.09 0.18 0.24 0.17 0.19 0.34 0.52 0.66 0.77 1.00 1.14 1.16 1.10 1.11 1.42 1.84 2.08 2.37 2.83 3.59 4.30 4.93 4.98 5.15 4.59 3.91 3.31 2.88 2.74 2.49 2.21 2.18 2.05 1.85 1.69 1.50 1.41
0.02 0.04 0.03 0.02 0.03 0.05 0.09 0.12 0.20 0.22 0.15 0.17 0.34 0.61 0.79 0.88 0.87 0.94 0.97 1.01 1.10 1.47 1.94 2.31 2.85 3.19 3.19 3.69 4.36 4.37 3.99 3.68 3.21 2.74 2.51 2.33 2.22 1.97 1.79 1.62 1.51 1.33 1.23 1.24
0.04 0.05 0.03 0.03 0.05 0.10 0.12 0.14 0.18 0.16 0.15 0.22 0.40 0.75 1.03 0.98 0.74 0.68 0.73 0.79 0.94 1.28 1.80 2.24 2.66 3.05 3.00 3.35 3.43 2.99 2.71 2.68 2.57 2.35 2.22 2.13 2.05 1.85 1.53 1.26 1.14 1.07 1.00 0.96
0.03 0.03 0.03 0.04 0.06 0.07 0.08 0.08 0.07 0.07 0.13 0.28 0.42 0.94 1.32 1.12 0.84 0.71 0.72 0.83 0.91 1.00 1.19 1.52 1.84 2.27 2.46 2.51 2.40 2.25 2.15 2.12 2.24 2.20 1.99 1.80 1.46 1.29 1.13 0.99 1.01 1.01 0.90 0.83
0.03 0.03 0.03 0.04 0.05 0.05 0.05 0.04 0.05 0.08 0.13 0.27 0.47 0.79 1.18 1.17 1.12 0.97 0.85 0.88 0.80 0.75 0.83 1.03 1.16 1.36 1.64 1.84 1.85 1.77 1.97 2.03 2.01 1.94 1.87 1.82 1.55 1.29 1.18 1.17 1.22 1.13 1.00 0.86
0.05 0.05 0.04 0.03 0.04 0.04 0.04 0.05 0.12 0.25 0.37 0.69 0.68 0.73 1.07 1.02 0.98 0.96 0.80 0.68 0.64 0.60 0.65 0.83 0.90 0.94 1.06 1.17 1.25 1.32 1.53 1.73 1.76 1.71 1.68 1.67 1.57 1.40 1.21 1.12 1.09 1.03 0.98 0.90
0.14 0.12 0.09 0.05 0.05 0.05 0.05 0.09 0.32 0.69 1.00 1.17 0.72 0.70 0.89 0.78 0.80 0.86 0.66 0.44 0.40 0.46 0.48 0.57 0.64 0.71 0.78 0.79 0.84 0.95 1.12 1.30 1.43 1.49 1.48 1.49 1.56 1.41 1.19 0.99 0.97 0.92 0.82 0.79
0.15 0.18 0.10 0.05 0.05 0.06 0.06 0.07 0.19 0.34 0.49 0.70 0.74 1.09 1.02 0.65 0.62 0.53 0.36 0.25 0.24 0.36 0.38 0.39 0.41 0.45 0.55 0.55 0.61 0.70 0.77 0.89 1.03 1.23 1.36 1.27 1.32 1.18 1.04 1.08 1.01 0.88 0.73 0.77
0.07 0.06 0.05 0.05 0.05 0.07 0.05 0.05 0.06 0.10 0.16 0.44 0.82 1.17 0.96 0.55 0.51 0.37 0.25 0.19 0.23 0.27 0.35 0.34 0.31 0.30 0.34 0.36 0.41 0.51 0.66 0.80 0.86 0.93 1.13 1.21 1.14 1.08 1.08 1.12 1.07 0.95 0.87 0.82
0.04 0.02 0.04 0.05 0.05 0.07 0.06 0.06 0.06 0.07 0.15 0.33 0.69 1.05 1.09 0.81 0.58 0.36 0.27 0.27 0.34 0.31 0.37 0.41 0.31 0.25 0.28 0.30 0.34 0.46 0.58 0.76 0.90 0.89 0.88 0.94 1.08 1.11 1.18 1.17 0.99 0.91 0.90 0.87
0.04 0.02 0.03 0.04 0.06 0.08 0.08 0.08 0.09 0.10 0.12 0.21 0.52 0.76 0.66 0.63 0.46 0.34 0.37 0.44 0.31 0.27 0.31 0.36 0.29 0.24 0.29 0.31 0.37 0.46 0.56 0.80 0.95 0.86 0.86 0.93 1.03 1.09 1.13 1.27 1.20 1.04 0.97 0.91
0.05 0.03 0.04 0.08 0.11 0.10 0.10 0.10 0.11 0.14 0.16 0.17 0.27 0.48 0.40 0.46 0.42 0.49 0.56 0.51 0.40 0.35 0.31 0.35 0.34 0.36 0.38 0.42 0.45 0.53 0.61 0.76 0.85 0.85 0.89 0.92 0.97 1.01 1.02 1.08 1.13 1.14 1.03 0.93
0.06 0.05 0.07 0.21 0.31 0.22 0.14 0.10 0.11 0.13 0.13 0.16 0.31 0.50 0.43 0.46 0.46 0.50 0.51 0.47 0.52 0.53 0.48 0.46 0.48 0.52 0.47 0.46 0.55 0.61 0.69 0.75 0.85 0.99 0.95 0.88 0.87 0.82 0.83 0.90 0.96 1.04 1.10 1.12
0.07 0.06 0.08 0.22 0.33 0.35 0.26 0.17 0.16 0.13 0.14 0.17 0.24 0.44 0.42 0.54 0.65 0.53 0.55 0.51 0.49 0.48 0.47 0.42 0.44 0.46 0.49 0.52 0.55 0.61 0.69 0.78 0.86 0.85 0.84 0.84 0.82 0.82 0.88 0.93 0.96 0.99 1.03 1.12
0.09 0.07 0.05 0.09 0.17 0.20 0.21 0.20 0.18 0.13 0.12 0.17 0.22 0.34 0.47 0.58 0.69 0.58 0.56 0.64 0.67 0.52 0.42 0.36 0.33 0.43 0.53 0.59 0.57 0.58 0.66 0.77 0.87 0.90 0.84 0.78 0.80 0.85 0.88 0.90 0.92 0.94 0.99 1.02
0.15 0.11 0.10 0.11 0.14 0.14 0.16 0.18 0.15 0.11 0.09 0.09 0.18 0.34 0.49 0.61 0.64 0.59 0.49 0.48 0.64 0.56 0.41 0.36 0.36 0.45 0.52 0.54 0.53 0.49 0.53 0.63 0.74 0.82 0.87 0.90 0.88 0.84 0.88 0.91 0.91 0.95 1.01 1.11
0.28 0.22 0.21 0.21 0.17 0.18 0.25 0.20 0.17 0.14 0.12 0.13 0.23 0.36 0.51 0.63 0.56 0.59 0.56 0.47 0.47 0.44 0.37 0.43 0.47 0.46 0.49 0.50 0.46 0.46 0.46 0.57 0.78 0.88 0.89 0.99 1.07 0.99 1.05 1.08 1.06 1.07 1.11 1.22
0.38 0.39 0.31 0.28 0.31 0.37 0.28 0.22 0.21 0.23 0.24 0.22 0.26 0.37 0.58 0.75 0.64 0.57 0.57 0.54 0.49 0.38 0.37 0.40 0.41 0.40 0.43 0.44 0.46 0.46 0.48 0.56 0.76 0.92 0.97 1.13 1.28 1.19 1.22 1.24 1.25 1.31 1.38 1.41
0.39 0.47 0.47 0.42 0.43 0.45 0.36 0.32 0.34 0.42 0.50 0.43 0.44 0.56 0.61 0.58 0.55 0.57 0.52 0.47 0.44 0.40 0.39 0.37 0.39 0.41 0.42 0.46 0.49 0.52 0.65 0.76 0.88 1.00 1.12 1.30 1.45 1.53 1.51 1.47 1.56 1.62 1.64 1.68
0.34 0.45 0.54 0.56 0.62 0.70 0.63 0.51 0.47 0.59 0.90 0.74 0.59 0.61 0.61 0.58 0.69 0.67 0.48 0.43 0.39 0.36 0.37 0.40 0.45 0.46 0.45 0.51 0.57 0.63 0.79 0.98 1.10 1.14 1.17 1.26 1.45 1.55 1.59 1.60 1.76 1.90 1.93 1.92
0.52 0.53 0.56 0.63 0.73 0.71 0.63 0.57 0.61 1.02 1.31 0.94 0.81 0.83 0.87 0.84 0.77 0.64 0.50 0.49 0.45 0.39 0.42 0.45 0.49 0.55 0.59 0.65 0.75 0.86 0.95 1.06 1.08 1.09 1.13 1.20 1.44 1.72 1.76 1.82 1.90 2.00 2.07 2.11
0.69 0.70 0.68 0.74 0.96 1.04 0.67 0.61 0.93 1.22 1.15 1.18 1.14 1.12 1.06 0.92 0.72 0.59 0.53 0.53 0.47 0.44 0.46 0.48 0.49 0.54 0.62 0.73 0.88 0.98 1.00 1.02 1.07 1.09 1.16 1.30 1.55 1.65 1.74 1.90 1.95 2.10 2.22 2.22
0.77 0.86 0.86 0.94 1.12 1.02 0.81 0.88 0.92 0.98 1.10 1.15 1.08 1.06 1.02 0.96 0.80 0.67 0.60 0.56 0.54 0.52 0.51 0.55 0.56 0.59 0.66 0.77 0.95 1.09 1.09 1.09 1.09 1.09 1.14 1.24 1.39 1.49 1.62 1.70 1.68 1.78 1.90 1.93
0.86 0.77 0.97 1.27 1.25 1.08 0.93 0.87 0.88 0.84 0.90 0.89 0.85 0.79 0.78 0.76 0.68 0.57 0.52 0.58 0.62 0.67 0.64 0.64 0.62 0.64 0.68 0.73 0.91 1.05 1.07 1.09 1.08 1.04 1.02 1.11 1.29 1.37 1.44 1.56 1.58 1.68 1.75 1.80
1.04 1.00 1.19 1.51 1.48 1.30 1.17 1.02 1.00 0.87 0.85 0.83 0.78 0.73 0.67 0.57 0.55 0.52 0.44 0.43 0.47 0.53 0.54 0.54 0.56 0.60 0.63 0.69 0.86 1.01 1.03 1.07 1.10 1.07 1.03 1.11 1.22 1.31 1.39 1.50 1.59 1.61 1.64 1.62
0.95 1.11 1.35 1.53 1.41 1.35 1.33 1.04 0.98 1.01 0.92 0.80 0.75 0.70 0.64 0.53 0.47 0.44 0.40 0.37 0.37 0.43 0.50 0.53 0.56 0.58 0.56 0.62 0.73 0.84 1.02 1.17 1.23 1.16 1.08 1.07 1.08 1.16 1.23 1.31 1.31 1.25 1.24 1.22

GEFSCGP_prec_meanprecacc_168.txt.gz
Total_Precipitation_Accumulation
0.00 0.01 0.01 0.02 0.02 0.03 0.06 0.09 0.18 0.24 0.17 0.19 0.34 0.52 0.66 0.77 1.00 1.14 1.16 1.10 1.12 1.42 1.84 2.08 2.38 2.84 3.60 4.32 4.98 5.06 5.22 4.66 4.00 3.40 2.95 2.80 2.55 2.26 2.22 2.10 1.93 1.76 1.56 1.48
0.02 0.04 0.03 0.02 0.03 0.05 0.09 0.12 0.20 0.22 0.15 0.17 0.34 0.61 0.79 0.88 0.87 0.94 0.97 1.01 1.10 1.48 1.94 2.32 2.85 3.21 3.21 3.71 4.40 4.44 4.07 3.76 3.28 2.83 2.60 2.41 2.30 2.03 1.84 1.70 1.60 1.41 1.30 1.30
0.04 0.05 0.03 0.03 0.05 0.10 0.12 0.14 0.18 0.16 0.15 0.22 0.40 0.75 1.03 0.98 0.74 0.68 0.73 0.79 0.94 1.28 1.80 2.25 2.66 3.06 3.02 3.37 3.47 3.06 2.81 2.78 2.69 2.46 2.32 2.20 2.12 1.94 1.62 1.34 1.21 1.13 1.06 1.04
0.03 0.03 0.03 0.04 0.06 0.07 0.08 0.08 0.07 0.07 0.13 0.28 0.42 0.94 1.32 1.12 0.84 0.71 0.72 0.84 0.91 1.01 1.20 1.52 1.86 2.29 2.47 2.52 2.43 2.32 2.24 2.19 2.35 2.32 2.08 1.87 1.52 1.37 1.23 1.09 1.09 1.09 0.98 0.92
0.03 0.03 0.03 0.04 0.05 0.05 0.05 0.04 0.05 0.08 0.13 0.27 0.47 0.79 1.18 1.17 1.12 0.97 0.85 0.88 0.81 0.76 0.83 1.04 1.17 1.38 1.65 1.86 1.89 1.82 2.03 2.08 2.07 2.02 1.95 1.89 1.61 1.37 1.26 1.25 1.32 1.23 1.09 0.94
0.05 0.05 0.04 0.03 0.04 0.04 0.04 0.05 0.12 0.25 0.37 0.69 0.68 0.73 1.07 1.02 0.98 0.96 0.80 0.68 0.64 0.60 0.65 0.84 0.91 0.96 1.07 1.20 1.29 1.36 1.58 1.77 1.80 1.76 1.74 1.74 1.66 1.50 1.28 1.18 1.18 1.13 1.07 0.97
0.14 0.12 0.09 0.05 0.05 0.05 0.05 0.09 0.32 0.69 1.00 1.17 0.72 0.70 0.89 0.78 0.80 0.86 0.66 0.44 0.40 0.46 0.48 0.58 0.65 0.73 0.79 0.81 0.88 1.00 1.19 1.35 1.47 1.53 1.53 1.56 1.67 1.53 1.28 1.07 1.07 1.01 0.91 0.87
0.15 0.18 0.10 0.05 0.05 0.06 0.06 0.07 0.19 0.34 0.49 0.70 0.74 1.09 1.02 0.65 0.62 0.53 0.36 0.25 0.24 0.37 0.39 0.39 0.42 0.46 0.57 0.59 0.66 0.77 0.84 0.94 1.07 1.27 1.42 1.36 1.42 1.28 1.13 1.17 1.09 0.94 0.78 0.83
0.07 0.06 0.05 0.05 0.05 0.07 0.05 0.05 0.06 0.10 0.16 0.44 0.82 1.17 0.96 0.55 0.51 0.37 0.25 0.19 0.23 0.28 0.35 0.34 0.31 0.30 0.35 0.38 0.44 0.54 0.69 0.84 0.91 1.01 1.20 1.29 1.22 1.15 1.16 1.21 1.15 1.01 0.92 0.86
0.04 0.02 0.04 0.05 0.05 0.07 0.06 0.06 0.06 0.07 0.15 0.33 0.69 1.05 1.09 0.81 0.58 0.36 0.27 0.27 0.34 0.31 0.38 0.41 0.31 0.25 0.29 0.31 0.35 0.48 0.62 0.81 0.97 0.98 0.96 1.00 1.15 1.17 1.23 1.22 1.05 0.97 0.96 0.93
0.04 0.02 0.03 0.04 0.06 0.08 0.08 0.08 0.09 0.10 0.12 0.21 0.52 0.76 0.66 0.63 0.46 0.34 0.37 0.44 0.32 0.28 0.33 0.36 0.29 0.24 0.30 0.33 0.39 0.49 0.60 0.84 1.02 0.93 0.92 1.00 1.10 1.15 1.17 1.31 1.25 1.11 1.05 1.00
0.05 0.03 0.04 0.08 0.11 0.10 0.10 0.10 0.11 0.14 0.16 0.17 0.27 0.48 0.40 0.46 0.42 0.49 0.56 0.52 0.40 0.36 0.32 0.36 0.34 0.36 0.38 0.43 0.47 0.55 0.63 0.78 0.89 0.90 0.95 1.01 1.06 1.09 1.07 1.11 1.17 1.19 1.09 1.02
0.06 0.05 0.07 0.21 0.31 0.22 0.14 0.10 0.11 0.13 0.13 0.16 0.31 0.50 0.43 0.46 0.47 0.50 0.51 0.47 0.52 0.53 0.48 0.46 0.48 0.52 0.47 0.47 0.57 0.63 0.70 0.77 0.87 1.03 1.01 0.96 0.99 0.94 0.92 0.95 1.00 1.09 1.14 1.17
0.07 0.06 0.08 0.22 0.33 0.35 0.26 0.17 0.16 0.13 0.14 0.17 0.24 0.44 0.42 0.54 0.65 0.53 0.55 0.51 0.49 0.48 0.47 0.43 0.45 0.47 0.50 0.54 0.58 0.63 0.71 0.79 0.88 0.89 0.89 0.89 0.88 0.88 0.94 0.99 1.01 1.05 1.08 1.17
0.09 0.07 0.05 0.09 0.17 0.20 0.21 0.20 0.18 0.13 0.12 0.17 0.22 0.34 0.47 0.58 0.69 0.58 0.56 0.64 0.67 0.52 0.43 0.36 0.33 0.43 0.54 0.60 0.59 0.60 0.67 0.78 0.88 0.91 0.85 0.80 0.82 0.87 0.90 0.92 0.95 0.99 1.04 1.07
0.15 0.11 0.10 0.11 0.14 0.14 0.16 0.18 0.15 0.11 0.09 0.09 0.18 0.34 0.49 0.61 0.64 0.59 0.50 0.48 0.64 0.56 0.41 0.36 0.36 0.45 0.53 0.55 0.55 0.50 0.54 0.64 0.75 0.83 0.89 0.92 0.90 0.85 0.90 0.93 0.94 0.98 1.07 1.18
0.28 0.22 0.21 0.21 0.17 0.18 0.25 0.20 0.17 0.14 0.12 0.13 0.23 0.36 0.51 0.63 0.56 0.59 0.56 0.47 0.47 0.44 0.37 0.44 0.47 0.47 0.50 0.51 0.47 0.47 0.47 0.58 0.79 0.89 0.91 1.01 1.09 1.00 1.07 1.10 1.08 1.10 1.16 1.27
0.38 0.39 0.31 0.28 0.31 0.37 0.28 0.22 0.21 0.23 0.24 0.22 0.26 0.37 0.58 0.75 0.64 0.57 0.57 0.54 0.49 0.39 0.38 0.41 0.42 0.42 0.45 0.46 0.47 0.47 0.49 0.57 0.77 0.94 0.98 1.13 1.28 1.20 1.23 1.25 1.26 1.32 1.40 1.44
0.39 0.47 0.47 0.42 0.43 0.45 0.36 0.32 0.34 0.42 0.50 0.43 0.44 0.56 0.61 0.58 0.55 0.57 0.52 0.47 0.44 0.40 0.39 0.38 0.41 0.42 0.44 0.49 0.50 0.54 0.66 0.77 0.89 1.01 1.13 1.30 1.46 1.53 1.52 1.49 1.57 1.63 1.66 1.71
0.34 0.45 0.54 0.56 0.62 0.70 0.63 0.51 0.47 0.59 0.90 0.74 0.59 0.61 0.61 0.58 0.69 0.67 0.48 0.43 0.39 0.36 0.38 0.41 0.46 0.47 0.47 0.53 0.58 0.65 0.80 0.99 1.12 1.15 1.18 1.27 1.45 1.56 1.60 1.61 1.77 1.92 1.96 1.96
0.52 0.53 0.56 0.63 0.73 0.71 0.63 0.57 0.61 1.03 1.31 0.94 0.81 0.83 0.87 0.84 0.77 0.64 0.50 0.49 0.46 0.39 0.42 0.46 0.50 0.56 0.61 0.67 0.77 0.88 0.96 1.07 1.09 1.09 1.13 1.21 1.44 1.72 1.76 1.82 1.90 2.01 2.08 2.13
0.69 0.70 0.68 0.74 0.96 1.04 0.67 0.61 0.93 1.22 1.15 1.18 1.14 1.12 1.07 0.92 0.73 0.59 0.53 0.54 0.47 0.45 0.47 0.49 0.51 0.56 0.65 0.75 0.90 0.98 1.00 1.03 1.08 1.09 1.17 1.30 1.55 1.66 1.75 1.90 1.96 2.11 2.22 2.23
0.77 0.87 0.86 0.94 1.12 1.02 0.81 0.88 0.92 0.98 1.10 1.15 1.08 1.07 1.03 0.97 0.80 0.68 0.60 0.57 0.56 0.53 0.53 0.57 0.58 0.61 0.68 0.78 0.97 1.10 1.09 1.10 1.10 1.10 1.15 1.25 1.39 1.50 1.63 1.70 1.69 1.78 1.91 1.93
0.86 0.77 0.97 1.27 1.25 1.08 0.93 0.87 0.88 0.84 0.90 0.90 0.85 0.80 0.79 0.77 0.69 0.57 0.52 0.59 0.63 0.68 0.65 0.65 0.64 0.66 0.70 0.74 0.92 1.06 1.07 1.10 1.10 1.06 1.03 1.12 1.30 1.38 1.45 1.56 1.58 1.68 1.76 1.82
1.05 1.01 1.19 1.51 1.49 1.30 1.17 1.03 1.00 0.87 0.85 0.83 0.79 0.75 0.69 0.59 0.56 0.53 0.45 0.45 0.48 0.54 0.57 0.57 0.58 0.62 0.64 0.70 0.87 1.01 1.04 1.07 1.11 1.08 1.04 1.11 1.22 1.32 1.40 1.52 1.61 1.64 1.66 1.65
0.95 1.12 1.36 1.54 1.42 1.36 1.34 1.04 0.98 1.02 0.93 0.80 0.77 0.72 0.66 0.55 0.48 0.46 0.42 0.40 0.40 0.46 0.54 0.56 0.59 0.60 0.58 0.63 0.74 0.85 1.02 1.18 1.23 1.16 1.09 1.08 1.09 1.17 1.25 1.34 1.34 1.27 1.25 1.24

GEFSCGP_prec_meanprecacc_174.txt.gz
Total_Precipitation_Accumulation
0.00 0.01 0.01 0.02 0.02 0.03 0.07 0.09 0.18 0.24 0.17 0.19 0.34 0.52 0.67 0.78 1.01 1.14 1.17 1.10 1.12 1.42 1.85 2.08 2.38 2.84 3.60 4.32 4.99 5.09 5.26 4.71 4.04 3.46 3.02 2.88 2.63 2.34 2.29 2.16 1.97 1.80 1.61 1.52
0.02 0.04 0.03 0.02 0.03 0.05 0.09 0.12 0.20 0.22 0.15 0.17 0.34 0.61 0.79 0.89 0.87 0.94 0.97 1.01 1.10 1.48 1.94 2.32 2.85 3.21 3.21 3.72 4.41 4.47 4.10 3.80 3.31 2.88 2.69 2.51 2.40 2.10 1.91 1.76 1.69 1.48 1.37 1.37
0.04 0.05 0.03 0.03 0.05 0.10 0.12 0.14 0.18 0.16 0.15 0.22 0.40 0.75 1.05 0.99 0.76 0.69 0.73 0.79 0.94 1.28 1.80 2.25 2.66 3.07 3.02 3.37 3.48 3.08 2.84 2.82 2.74 2.53 2.40 2.29 2.23 2.04 1.72 1.42 1.31 1.21 1.14 1.11
0.03 0.03 0.03 0.04 0.06 0.07 0.08 0.08 0.07 0.07 0.13 0.28 0.42 0.95 1.35 1.14 0.86 0.72 0.73 0.84 0.92 1.03 1.20 1.52 1.86 2.29 2.48 2.53 2.44 2.34 2.27 2.24 2.41 2.40 2.17 1.98 1.65 1.50 1.37 1.20 1.19 1.20 1.07 1.00
0.03 0.03 0.03 0.04 0.05 0.05 0.05 0.04 0.05 0.08 0.13 0.27 0.48 0.81 1.20 1.19 1.14 0.99 0.85 0.88 0.81 0.81 0.85 1.04 1.17 1.38 1.66 1.87 1.90 1.84 2.07 2.14 2.15 2.11 2.04 2.01 1.74 1.51 1.39 1.38 1.45 1.39 1.20 1.03
0.05 0.05 0.04 0.03 0.04 0.04 0.04 0.05 0.12 0.25 0.37 0.69 0.68 0.73 1.08 1.03 0.99 0.98 0.80 0.68 0.64 0.65 0.68 0.84 0.91 0.97 1.09 1.22 1.30 1.40 1.64 1.83 1.89 1.85 1.83 1.84 1.78 1.65 1.41 1.31 1.32 1.25 1.18 1.06
0.14 0.12 0.09 0.05 0.05 0.05 0.05 0.09 0.32 0.69 1.01 1.17 0.72 0.70 0.91 0.79 0.80 0.86 0.66 0.44 0.40 0.47 0.49 0.58 0.66 0.74 0.81 0.82 0.91 1.06 1.26 1.43 1.55 1.60 1.60 1.65 1.77 1.64 1.40 1.19 1.18 1.11 1.00 0.95
0.15 0.18 0.10 0.05 0.05 0.06 0.06 0.07 0.19 0.34 0.49 0.70 0.75 1.10 1.02 0.66 0.62 0.54 0.36 0.25 0.25 0.38 0.40 0.39 0.42 0.48 0.59 0.60 0.68 0.80 0.89 1.00 1.13 1.34 1.50 1.46 1.52 1.38 1.24 1.29 1.19 1.04 0.86 0.90
0.07 0.06 0.05 0.05 0.05 0.07 0.05 0.05 0.06 0.10 0.16 0.44 0.83 1.18 0.97 0.55 0.51 0.37 0.25 0.19 0.23 0.28 0.36 0.35 0.32 0.31 0.37 0.39 0.45 0.55 0.72 0.90 0.98 1.08 1.28 1.38 1.30 1.24 1.27 1.32 1.24 1.12 1.03 0.95
0.04 0.02 0.04 0.05 0.05 0.07 0.06 0.06 0.06 0.07 0.15 0.34 0.69 1.05 1.10 0.81 0.58 0.36 0.27 0.27 0.34 0.31 0.39 0.41 0.31 0.26 0.31 0.32 0.36 0.49 0.65 0.86 1.03 1.04 1.02 1.06 1.23 1.26 1.32 1.31 1.13 1.07 1.05 1.04
0.04 0.02 0.03 0.04 0.06 0.08 0.08 0.08 0.09 0.10 0.12 0.21 0.52 0.77 0.67 0.63 0.46 0.34 0.37 0.44 0.32 0.29 0.35 0.38 0.29 0.25 0.30 0.33 0.40 0.51 0.62 0.87 1.05 0.97 0.97 1.05 1.18 1.22 1.24 1.38 1.33 1.20 1.12 1.08
0.05 0.03 0.04 0.08 0.11 0.10 0.10 0.10 0.11 0.14 0.16 0.17 0.28 0.48 0.42 0.47 0.42 0.49 0.56 0.52 0.40 0.37 0.34 0.37 0.34 0.36 0.39 0.44 0.48 0.58 0.65 0.80 0.91 0.93 0.99 1.05 1.12 1.15 1.13 1.17 1.22 1.25 1.16 1.08
0.06 0.05 0.07 0.21 0.31 0.22 0.14 0.10 0.11 0.13 0.13 0.16 0.31 0.50 0.43 0.46 0.47 0.50 0.51 0.47 0.53 0.54 0.48 0.46 0.48 0.52 0.48 0.49 0.58 0.66 0.73 0.79 0.90 1.06 1.04 1.00 1.03 0.97 0.96 1.00 1.04 1.12 1.18 1.21
0.07 0.06 0.08 0.22 0.33 0.35 0.26 0.17 0.16 0.13 0.14 0.17 0.24 0.44 0.43 0.54 0.65 0.53 0.55 0.51 0.49 0.49 0.47 0.44 0.45 0.48 0.51 0.55 0.60 0.65 0.73 0.82 0.90 0.92 0.92 0.92 0.91 0.91 0.97 1.02 1.04 1.08 1.11 1.20
0.09 0.07 0.05 0.09 0.17 0.20 0.21 0.20 0.18 0.13 0.12 0.17 0.22 0.34 0.48 0.58 0.69 0.58 0.56 0.64 0.67 0.52 0.43 0.37 0.34 0.44 0.56 0.62 0.61 0.63 0.72 0.82 0.93 0.95 0.89 0.84 0.86 0.91 0.94 0.95 0.99 1.02 1.07 1.10
0.15 0.11 0.10 0.11 0.14 0.14 0.16 0.18 0.15 0.11 0.09 0.10 0.18 0.34 0.49 0.62 0.64 0.59 0.50 0.48 0.64 0.56 0.41 0.37 0.37 0.46 0.55 0.56 0.57 0.54 0.57 0.67 0.78 0.85 0.90 0.94 0.93 0.89 0.94 0.97 0.98 1.02 1.10 1.22
0.28 0.22 0.21 0.21 0.17 0.18 0.25 0.20 0.17 0.14 0.12 0.13 0.23 0.36 0.51 0.63 0.56 0.59 0.56 0.48 0.48 0.44 0.39 0.45 0.49 0.48 0.50 0.52 0.49 0.49 0.49 0.60 0.80 0.90 0.92 1.02 1.10 1.02 1.09 1.13 1.12 1.14 1.20 1.32
0.38 0.39 0.31 0.28 0.31 0.37 0.28 0.22 0.21 0.23 0.24 0.22 0.26 0.37 0.58 0.75 0.64 0.57 0.57 0.55 0.49 0.39 0.38 0.42 0.43 0.44 0.46 0.47 0.48 0.48 0.50 0.58 0.78 0.95 0.99 1.14 1.29 1.21 1.24 1.26 1.29 1.35 1.42 1.46
0.39 0.47 0.47 0.42 0.43 0.45 0.36 0.32 0.34 0.42 0.50 0.43 0.44 0.56 0.61 0.58 0.55 0.57 0.52 0.47 0.44 0.41 0.40 0.39 0.42 0.43 0.45 0.50 0.51 0.55 0.67 0.79 0.91 1.03 1.14 1.31 1.47 1.54 1.53 1.50 1.59 1.65 1.68 1.73
0.34 0.45 0.54 0.56 0.63 0.70 0.64 0.51 0.47 0.59 0.90 0.74 0.59 0.61 0.61 0.59 0.70 0.69 0.49 0.43 0.40 0.37 0.38 0.41 0.47 0.48 0.48 0.54 0.59 0.66 0.81 1.00 1.13 1.16 1.18 1.27 1.46 1.56 1.60 1.61 1.78 1.93 1.97 1.97
0.52 0.53 0.56 0.63 0.73 0.72 0.63 0.57 0.61 1.03 1.33 0.95 0.81 0.83 0.87 0.84 0.78 0.65 0.50 0.50 0.47 0.40 0.43 0.47 0.50 0.57 0.62 0.69 0.78 0.89 0.97 1.08 1.10 1.10 1.13 1.21 1.45 1.72 1.77 1.83 1.91 2.03 2.10 2.15
0.69 0.70 0.68 0.74 0.96 1.05 0.68 0.61 0.94 1.24 1.16 1.18 1.14 1.12 1.07 0.92 0.73 0.60 0.53 0.55 0.48 0.46 0.48 0.49 0.52 0.57 0.66 0.77 0.92 1.00 1.02 1.05 1.09 1.10 1.17 1.31 1.56 1.66 1.75 1.91 1.97 2.12 2.24 2.25
0.77 0.87 0.86 0.95 1.14 1.03 0.81 0.88 0.92 0.98 1.10 1.15 1.08 1.07 1.03 0.97 0.81 0.69 0.61 0.58 0.57 0.54 0.53 0.58 0.58 0.62 0.69 0.80 0.98 1.12 1.11 1.11 1.11 1.11 1.16 1.26 1.40 1.50 1.64 1.71 1.70 1.80 1.92 1.94
0.87 0.77 0.98 1.29 1.27 1.09 0.93 0.87 0.88 0.84 0.90 0.90 0.85 0.80 0.79 0.77 0.70 0.59 0.54 0.59 0.64 0.69 0.66 0.66 0.64 0.67 0.71 0.76 0.94 1.08 1.09 1.11 1.11 1.06 1.04 1.13 1.31 1.39 1.46 1.58 1.60 1.69 1.77 1.83
1.06 1.01 1.20 1.54 1.51 1.32 1.18 1.03 1.00 0.87 0.85 0.83 0.79 0.75 0.69 0.60 0.58 0.55 0.47 0.46 0.49 0.55 0.58 0.58 0.59 0.64 0.66 0.72 0.89 1.03 1.06 1.08 1.12 1.08 1.05 1.12 1.23 1.33 1.41 1.53 1.62 1.64 1.68 1.66
0.96 1.12 1.38 1.57 1.44 1.38 1.37 1.05 0.98 1.02 0.93 0.81 0.78 0.72 0.66 0.56 0.50 0.48 0.45 0.40 0.40 0.47 0.54 0.57 0.61 0.63 0.60 0.65 0.76 0.86 1.03 1.19 1.24 1.17 1.09 1.08 1.09 1.18 1.25 1.34 1.34 1.28 1.26 1.25

GEFSCGP_prec_meanprecacc_180.txt.gz
Total_Precipitation_Accumulation
0.00 0.01 0.01 0.02 0.02 0.03 0.07 0.09 0.18 0.24 0.18 0.20 0.36 0.54 0.69 0.81 1.05 1.17 1.20 1.14 1.15 1.45 1.87 2.09 2.39 2.85 3.61 4.34 5.01 5.11 5.27 4.74 4.07 3.49 3.05 2.92 2.68 2.39 2.33 2.19 2.02 1.86 1.68 1.59
0.02 0.04 0.03 0.02 0.03 0.05 0.09 0.12 0.20 0.22 0.15 0.17 0.35 0.63 0.82 0.91 0.90 0.98 1.02 1.06 1.16 1.53 1.97 2.34 2.86 3.22 3.22 3.74 4.43 4.48 4.12 3.82 3.33 2.92 2.73 2.56 2.46 2.17 1.99 1.85 1.82 1.64 1.49 1.45
0.04 0.05 0.03 0.03 0.05 0.10 0.12 0.14 0.18 0.17 0.15 0.22 0.41 0.78 1.09 1.04 0.78 0.71 0.78 0.85 0.99 1.33 1.85 2.28 2.68 3.08 3.03 3.39 3.50 3.10 2.88 2.87 2.79 2.59 2.48 2.37 2.32 2.14 1.84 1.56 1.50 1.45 1.27 1.22
0.03 0.03 0.03 0.04 0.06 0.07 0.08 0.08 0.07 0.07 0.14 0.29 0.43 0.96 1.37 1.17 0.89 0.74 0.78 0.95 1.01 1.12 1.31 1.57 1.89 2.31 2.50 2.56 2.49 2.41 2.34 2.31 2.47 2.48 2.26 2.06 1.74 1.59 1.49 1.35 1.34 1.36 1.23 1.16
0.03 0.03 0.03 0.04 0.05 0.05 0.05 0.04 0.05 0.08 0.13 0.27 0.48 0.82 1.22 1.21 1.18 1.02 0.89 0.94 0.89 0.91 0.94 1.08 1.20 1.41 1.69 1.92 1.96 1.91 2.14 2.21 2.21 2.19 2.13 2.10 1.83 1.61 1.50 1.57 1.72 1.60 1.35 1.13
0.05 0.05 0.04 0.03 0.04 0.04 0.04 0.05 0.12 0.25 0.37 0.70 0.69 0.74 1.09 1.06 1.02 1.02 0.87 0.73 0.68 0.68 0.73 0.88 0.95 0.99 1.12 1.26 1.36 1.47 1.70 1.90 1.96 1.91 1.91 1.93 1.87 1.76 1.51 1.43 1.46 1.37 1.25 1.11
0.14 0.12 0.09 0.05 0.05 0.05 0.05 0.09 0.32 0.69 1.01 1.18 0.73 0.71 0.92 0.81 0.82 0.90 0.71 0.48 0.43 0.50 0.53 0.63 0.70 0.78 0.86 0.88 0.95 1.11 1.30 1.46 1.59 1.65 1.67 1.72 1.86 1.75 1.50 1.29 1.29 1.23 1.09 1.00
0.15 0.18 0.10 0.05 0.05 0.06 0.06 0.07 0.19 0.34 0.50 0.71 0.75 1.11 1.05 0.68 0.63 0.55 0.40 0.30 0.27 0.42 0.45 0.44 0.48 0.53 0.66 0.67 0.73 0.84 0.93 1.04 1.17 1.39 1.57 1.53 1.60 1.46 1.32 1.39 1.29 1.13 0.94 0.95
0.07 0.06 0.05 0.05 0.05 0.07 0.05 0.05 0.06 0.10 0.16 0.44 0.83 1.19 0.99 0.58 0.54 0.41 0.28 0.21 0.26 0.33 0.43 0.38 0.37 0.41 0.44 0.46 0.49 0.58 0.74 0.94 1.02 1.12 1.33 1.42 1.35 1.30 1.35 1.43 1.36 1.22 1.11 1.01
0.04 0.02 0.04 0.05 0.05 0.07 0.06 0.06 0.06 0.07 0.15 0.34 0.70 1.06 1.13 0.87 0.64 0.43 0.32 0.30 0.37 0.35 0.44 0.49 0.36 0.36 0.38 0.35 0.40 0.53 0.67 0.89 1.08 1.09 1.07 1.11 1.28 1.31 1.40 1.40 1.23 1.17 1.13 1.10
0.04 0.02 0.03 0.04 0.06 0.08 0.08 0.08 0.09 0.10 0.12 0.22 0.53 0.78 0.70 0.69 0.52 0.41 0.42 0.49 0.36 0.32 0.39 0.43 0.32 0.27 0.32 0.35 0.42 0.53 0.65 0.91 1.08 1.00 1.01 1.10 1.24 1.29 1.31 1.43 1.38 1.26 1.18 1.15
0.05 0.03 0.04 0.08 0.11 0.10 0.10 0.10 0.11 0.14 0.16 0.17 0.28 0.49 0.43 0.50 0.48 0.56 0.60 0.56 0.46 0.42 0.40 0.43 0.39 0.40 0.41 0.46 0.51 0.62 0.69 0.83 0.94 0.97 1.03 1.10 1.18 1.22 1.18 1.22 1.27 1.31 1.21 1.13
0.06 0.05 0.07 0.21 0.31 0.22 0.14 0.10 0.11 0.13 0.13 0.16 0.31 0.50 0.44 0.48 0.50 0.55 0.58 0.53 0.59 0.62 0.55 0.51 0.52 0.57 0.51 0.53 0.65 0.73 0.80 0.83 0.93 1.09 1.08 1.03 1.07 1.01 1.01 1.05 1.10 1.18 1.22 1.24
0.07 0.06 0.08 0.22 0.33 0.35 0.26 0.17 0.16 0.13 0.14 0.17 0.24 0.44 0.44 0.55 0.69 0.62 0.66 0.59 0.54 0.56 0.53 0.46 0.48 0.51 0.54 0.59 0.65 0.72 0.81 0.86 0.94 0.96 0.96 0.96 0.95 0.94 1.00 1.05 1.07 1.10 1.13 1.21
0.09 0.07 0.05 0.09 0.17 0.20 0.21 0.20 0.18 0.13 0.12 0.17 0.22 0.35 0.50 0.60 0.73 0.65 0.63 0.69 0.70 0.57 0.50 0.40 0.36 0.47 0.58 0.65 0.65 0.71 0.79 0.87 0.99 1.00 0.93 0.88 0.90 0.93 0.96 0.97 1.00 1.03 1.09 1.12
0.15 0.11 0.10 0.11 0.14 0.14 0.16 0.18 0.15 0.11 0.09 0.10 0.18 0.36 0.52 0.65 0.68 0.64 0.54 0.52 0.66 0.59 0.50 0.48 0.45 0.53 0.59 0.60 0.60 0.58 0.61 0.72 0.86 0.91 0.95 0.98 0.96 0.90 0.95 0.99 0.99 1.03 1.12 1.24
0.28 0.22 0.21 0.21 0.17 0.18 0.25 0.20 0.17 0.14 0.12 0.13 0.23 0.37 0.53 0.66 0.59 0.63 0.58 0.50 0.50 0.46 0.44 0.51 0.53 0.56 0.57 0.56 0.53 0.52 0.52 0.62 0.82 0.93 0.94 1.03 1.12 1.03 1.10 1.14 1.14 1.16 1.23 1.34
0.38 0.39 0.31 0.28 0.31 0.37 0.28 0.23 0.22 0.24 0.24 0.23 0.27 0.38 0.59 0.76 0.66 0.59 0.58 0.57 0.52 0.41 0.41 0.47 0.47 0.48 0.51 0.51 0.52 0.50 0.52 0.60 0.80 0.96 1.00 1.16 1.31 1.22 1.25 1.27 1.29 1.36 1.43 1.47
0.39 0.47 0.47 0.42 0.44 0.46 0.37 0.33 0.35 0.44 0.52 0.44 0.45 0.58 0.63 0.60 0.58 0.61 0.55 0.50 0.48 0.45 0.44 0.43 0.47 0.48 0.50 0.54 0.54 0.57 0.69 0.80 0.92 1.04 1.15 1.32 1.48 1.55 1.53 1.50 1.59 1.65 1.68 1.73
0.35 0.45 0.55 0.57 0.63 0.72 0.65 0.52 0.48 0.60 0.93 0.76 0.60 0.63 0.62 0.60 0.73 0.74 0.55 0.49 0.48 0.47 0.46 0.50 0.57 0.57 0.54 0.60 0.63 0.68 0.83 1.02 1.14 1.17 1.19 1.29 1.47 1.57 1.61 1.62 1.78 1.94 1.98 1.98
0.52 0.54 0.56 0.64 0.74 0.73 0.65 0.58 0.62 1.05 1.37 0.97 0.83 0.85 0.89 0.86 0.80 0.69 0.59 0.59 0.53 0.46 0.49 0.52 0.56 0.63 0.66 0.72 0.80 0.91 0.99 1.09 1.12 1.12 1.15 1.23 1.46 1.74 1.78 1.84 1.92 2.03 2.10 2.15
0.70 0.71 0.69 0.74 0.97 1.07 0.69 0.62 0.96 1.27 1.18 1.20 1.16 1.15 1.09 0.94 0.76 0.63 0.58 0.59 0.54 0.50 0.53 0.53 0.54 0.60 0.68 0.78 0.93 1.01 1.04 1.07 1.13 1.14 1.20 1.32 1.57 1.67 1.77 1.93 1.98 2.13 2.25 2.26
0.78 0.88 0.86 0.95 1.15 1.05 0.83 0.90 0.94 1.00 1.12 1.18 1.11 1.10 1.06 1.02 0.87 0.74 0.66 0.63 0.62 0.59 0.58 0.62 0.60 0.64 0.70 0.81 1.00 1.14 1.13 1.14 1.14 1.13 1.17 1.27 1.41 1.51 1.65 1.73 1.71 1.80 1.93 1.95
0.89 0.79 0.99 1.32 1.31 1.12 0.96 0.90 0.91 0.86 0.93 0.93 0.89 0.83 0.81 0.81 0.77 0.69 0.65 0.69 0.71 0.75 0.70 0.69 0.66 0.68 0.72 0.78 0.96 1.11 1.12 1.13 1.13 1.08 1.05 1.14 1.32 1.40 1.47 1.59 1.60 1.70 1.77 1.83
1.10 1.05 1.24 1.60 1.58 1.37 1.23 1.08 1.04 0.91 0.88 0.87 0.82 0.78 0.71 0.63 0.62 0.60 0.54 0.51 0.55 0.59 0.60 0.60 0.61 0.65 0.68 0.74 0.91 1.05 1.08 1.10 1.14 1.10 1.06 1.13 1.24 1.34 1.42 1.53 1.62 1.65 1.68 1.66
1.02 1.19 1.44 1.65 1.53 1.45 1.44 1.14 1.05 1.09 0.99 0.85 0.82 0.76 0.68 0.58 0.53 0.52 0.49 0.46 0.45 0.50 0.57 0.60 0.63 0.64 0.62 0.67 0.77 0.87 1.04 1.20 1.26 1.18 1.10 1.09 1.10 1.18 1.26 1.34 1.35 1.28 1.26 1.25

GEFSCGP_prec_meanprecacc_186.txt.gz
Total_Precipitation_Accumulation
0.00 0.01 0.01 0.02 0.02 0.03 0.07 0.09 0.18 0.24 0.18 0.20 0.36 0.55 0.69 0.81 1.05 1.18 1.20 1.15 1.18 1.46 1.88 2.10 2.39 2.86 3.63 4.37 5.04 5.14 5.32 4.79 4.12 3.54 3.08 2.97 2.78 2.49 2.43 2.32 2.13 1.98 1.78 1.69
0.02 0.04 0.03 0.02 0.03 0.05 0.09 0.12 0.20 0.22 0.15 0.18 0.36 0.63 0.83 0.92 0.91 0.98 1.02 1.07 1.18 1.54 1.97 2.34 2.87 3.23 3.25 3.76 4.46 4.51 4.16 3.89 3.41 3.00 2.79 2.62 2.54 2.25 2.09 1.96 1.93 1.75 1.61 1.57
0.04 0.05 0.03 0.03 0.05 0.10 0.12 0.14 0.18 0.17 0.16 0.23 0.41 0.79 1.09 1.05 0.80 0.72 0.78 0.86 1.01 1.35 1.86 2.29 2.70 3.10 3.07 3.43 3.53 3.15 2.94 2.96 2.87 2.68 2.55 2.43 2.38 2.19 1.91 1.70 1.67 1.58 1.41 1.36
0.03 0.03 0.03 0.04 0.06 0.07 0.08 0.08 0.07 0.07 0.14 0.29 0.43 0.97 1.38 1.18 0.90 0.75 0.78 0.96 1.02 1.13 1.32 1.59 1.93 2.35 2.54 2.62 2.54 2.47 2.41 2.38 2.55 2.55 2.31 2.10 1.78 1.64 1.55 1.45 1.47 1.50 1.34 1.27
0.03 0.03 0.03 0.04 0.05 0.05 0.05 0.04 0.05 0.08 0.13 0.27 0.48 0.82 1.23 1.21 1.18 1.02 0.89 0.95 0.90 0.93 0.97 1.12 1.24 1.45 1.73 1.97 2.02 1.98 2.20 2.28 2.27 2.24 2.18 2.14 1.87 1.67 1.58 1.66 1.82 1.72 1.46 1.23
0.05 0.05 0.04 0.03 0.04 0.04 0.04 0.05 0.12 0.25 0.37 0.70 0.69 0.74 1.09 1.06 1.02 1.02 0.87 0.73 0.69 0.70 0.75 0.92 0.98 1.03 1.16 1.31 1.41 1.51 1.74 1.94 1.98 1.93 1.93 1.96 1.92 1.82 1.59 1.51 1.57 1.51 1.37 1.20
0.14 0.12 0.09 0.05 0.05 0.05 0.05 0.09 0.32 0.69 1.01 1.18 0.73 0.71 0.93 0.81 0.82 0.90 0.71 0.49 0.44 0.52 0.55 0.66 0.72 0.81 0.91 0.93 0.99 1.14 1.33 1.48 1.61 1.66 1.69 1.75 1.90 1.80 1.55 1.37 1.37 1.32 1.17 1.06
0.15 0.18 0.10 0.05 0.05 0.06 0.06 0.07 0.19 0.34 0.50 0.71 0.75 1.11 1.05 0.68 0.63 0.55 0.40 0.30 0.28 0.43 0.46 0.45 0.50 0.55 0.69 0.74 0.79 0.89 0.97 1.06 1.20 1.42 1.60 1.57 1.65 1.51 1.38 1.47 1.36 1.20 1.00 1.00
0.07 0.06 0.05 0.05 0.05 0.07 0.05 0.05 0.06 0.10 0.16 0.44 0.83 1.19 0.99 0.58 0.54 0.41 0.28 0.23 0.27 0.34 0.44 0.40 0.39 0.43 0.46 0.51 0.57 0.65 0.82 0.98 1.05 1.15 1.37 1.46 1.40 1.37 1.42 1.52 1.44 1.29 1.17 1.06
0.04 0.02 0.04 0.05 0.05 0.07 0.06 0.06 0.06 0.07 0.15 0.34 0.70 1.06 1.13 0.87 0.64 0.43 0.33 0.33 0.41 0.38 0.47 0.51 0.38 0.37 0.40 0.39 0.47 0.58 0.73 0.93 1.11 1.12 1.11 1.15 1.34 1.39 1.47 1.47 1.31 1.24 1.19 1.15
0.04 0.02 0.03 0.04 0.06 0.08 0.08 0.08 0.09 0.10 0.12 0.22 0.53 0.78 0.70 0.69 0.52 0.42 0.43 0.51 0.40 0.38 0.44 0.47 0.35 0.30 0.34 0.38 0.45 0.56 0.68 0.94 1.13 1.05 1.07 1.16 1.30 1.35 1.36 1.47 1.44 1.32 1.24 1.21
0.05 0.03 0.04 0.08 0.11 0.10 0.10 0.10 0.11 0.14 0.16 0.17 0.28 0.49 0.43 0.50 0.48 0.56 0.61 0.57 0.48 0.47 0.46 0.48 0.43 0.45 0.47 0.50 0.54 0.64 0.71 0.85 0.97 1.02 1.10 1.16 1.25 1.27 1.22 1.26 1.34 1.38 1.28 1.20
0.06 0.05 0.07 0.21 0.31 0.22 0.14 0.10 0.11 0.13 0.13 0.16 0.31 0.50 0.44 0.48 0.50 0.55 0.59 0.54 0.61 0.64 0.58 0.55 0.57 0.62 0.57 0.56 0.67 0.75 0.82 0.85 0.95 1.13 1.13 1.09 1.12 1.06 1.05 1.10 1.16 1.24 1.28 1.28
0.07 0.06 0.08 0.22 0.33 0.35 0.26 0.17 0.16 0.13 0.14 0.17 0.24 0.44 0.44 0.56 0.70 0.62 0.67 0.62 0.57 0.58 0.56 0.50 0.52 0.54 0.56 0.60 0.66 0.75 0.83 0.87 0.96 0.98 0.99 1.00 0.99 0.99 1.05 1.10 1.12 1.14 1.15 1.23
0.09 0.07 0.05 0.09 0.17 0.20 0.21 0.20 0.18 0.13 0.12 0.17 0.22 0.35 0.50 0.60 0.73 0.66 0.65 0.71 0.73 0.60 0.53 0.43 0.38 0.48 0.60 0.66 0.67 0.72 0.80 0.89 1.02 1.03 0.98 0.97 0.99 1.00 1.01 1.01 1.03 1.05 1.11 1.14
0.15 0.11 0.10 0.11 0.14 0.14 0.16 0.18 0.15 0.11 0.09 0.10 0.18 0.36 0.52 0.65 0.68 0.64 0.55 0.53 0.67 0.61 0.53 0.50 0.48 0.55 0.60 0.61 0.61 0.59 0.62 0.74 0.91 0.97 1.02 1.03 1.04 0.97 1.00 1.02 1.01 1.04 1.13 1.25
0.28 0.22 0.21 0.21 0.17 0.18 0.25 0.20 0.17 0.14 0.12 0.13 0.23 0.37 0.53 0.67 0.59 0.63 0.59 0.50 0.50 0.48 0.47 0.53 0.56 0.59 0.59 0.59 0.55 0.54 0.54 0.66 0.92 1.01 0.98 1.07 1.15 1.07 1.13 1.17 1.16 1.18 1.25 1.35
0.38 0.39 0.31 0.28 0.31 0.37 0.28 0.23 0.22 0.24 0.24 0.23 0.27 0.38 0.60 0.77 0.66 0.59 0.59 0.57 0.53 0.43 0.44 0.52 0.53 0.53 0.56 0.56 0.56 0.53 0.54 0.62 0.83 0.99 1.03 1.21 1.35 1.25 1.27 1.29 1.31 1.38 1.44 1.48
0.39 0.47 0.47 0.42 0.44 0.46 0.38 0.34 0.36 0.44 0.53 0.45 0.46 0.58 0.64 0.60 0.58 0.61 0.56 0.51 0.49 0.50 0.53 0.52 0.55 0.57 0.62 0.67 0.65 0.62 0.72 0.83 0.95 1.07 1.18 1.37 1.52 1.58 1.56 1.52 1.61 1.66 1.69 1.74
0.35 0.45 0.55 0.57 0.64 0.72 0.65 0.52 0.48 0.60 0.94 0.77 0.61 0.64 0.64 0.61 0.74 0.75 0.56 0.50 0.50 0.53 0.58 0.62 0.69 0.69 0.69 0.76 0.77 0.79 0.88 1.06 1.19 1.21 1.24 1.33 1.50 1.60 1.64 1.65 1.80 1.95 1.99 1.99
0.53 0.54 0.57 0.64 0.74 0.73 0.65 0.58 0.62 1.06 1.38 0.98 0.84 0.86 0.90 0.87 0.81 0.69 0.60 0.61 0.57 0.52 0.55 0.58 0.62 0.68 0.72 0.78 0.85 0.96 1.03 1.13 1.15 1.16 1.19 1.26 1.49 1.76 1.80 1.86 1.94 2.05 2.12 2.17
0.70 0.71 0.69 0.74 0.97 1.07 0.70 0.63 0.96 1.28 1.19 1.21 1.17 1.16 1.10 0.95 0.77 0.65 0.61 0.63 0.58 0.55 0.59 0.60 0.59 0.65 0.73 0.84 0.99 1.06 1.08 1.10 1.15 1.16 1.21 1.34 1.59 1.69 1.79 1.94 2.00 2.14 2.26 2.27
0.80 0.89 0.87 0.95 1.15 1.06 0.84 0.91 0.95 1.01 1.13 1.19 1.12 1.12 1.08 1.04 0.91 0.77 0.71 0.67 0.66 0.63 0.64 0.72 0.71 0.71 0.77 0.88 1.08 1.21 1.18 1.17 1.16 1.14 1.19 1.29 1.43 1.53 1.66 1.74 1.73 1.82 1.94 1.97
0.92 0.81 1.01 1.33 1.33 1.14 0.98 0.91 0.92 0.88 0.94 0.94 0.90 0.86 0.85 0.85 0.82 0.75 0.70 0.73 0.76 0.80 0.76 0.75 0.74 0.76 0.79 0.84 1.03 1.16 1.16 1.16 1.16 1.11 1.08 1.17 1.34 1.41 1.49 1.61 1.63 1.72 1.80 1.85
1.12 1.07 1.27 1.62 1.60 1.39 1.25 1.09 1.07 0.95 0.91 0.89 0.84 0.80 0.74 0.66 0.65 0.64 0.58 0.55 0.58 0.64 0.66 0.65 0.66 0.71 0.73 0.79 0.97 1.11 1.13 1.14 1.17 1.13 1.08 1.15 1.25 1.35 1.43 1.55 1.64 1.66 1.69 1.68
1.04 1.21 1.47 1.68 1.55 1.46 1.46 1.16 1.10 1.14 1.02 0.88 0.85 0.79 0.72 0.62 0.57 0.56 0.53 0.50 0.49 0.54 0.61 0.64 0.68 0.68 0.65 0.71 0.82 0.93 1.10 1.25 1.28 1.20 1.12 1.10 1.11 1.19 1.27 1.35 1.36 1.29 1.27 1.26

GEFSCGP_prec_meanprecacc_192.txt.gz
Total_Precipitation_Accumulation
0.00 0.01 0.01 0.02 0.02 0.03 0.07 0.09 0.18 0.24 0.18 0.20 0.36 0.55 0.69 0.81 1.05 1.18 1.20 1.15 1.18 1.46 1.88 2.10 2.40 2.89 3.66 4.40 5.08 5.18 5.36 4.84 4.18 3.60 3.16 3.06 2.88 2.58 2.50 2.39 2.23 2.07 1.86 1.74
0.02 0.04 0.03 0.02 0.03 0.05 0.09 0.12 0.20 0.22 0.15 0.18 0.36 0.63 0.83 0.92 0.91 0.99 1.02 1.07 1.18 1.54 1.97 2.34 2.88 3.26 3.27 3.79 4.49 4.54 4.21 3.95 3.48 3.06 2.85 2.68 2.61 2.32 2.16 2.03 2.01 1.84 1.69 1.65
0.04 0.05 0.03 0.03 0.05 0.10 0.12 0.14 0.18 0.17 0.16 0.23 0.42 0.79 1.09 1.05 0.80 0.72 0.78 0.86 1.01 1.35 1.86 2.29 2.70 3.12 3.08 3.44 3.55 3.17 2.97 3.01 2.92 2.72 2.59 2.48 2.43 2.24 1.97 1.78 1.76 1.66 1.47 1.43
0.03 0.03 0.03 0.04 0.06 0.07 0.08 0.08 0.07 0.07 0.14 0.29 0.43 0.97 1.38 1.18 0.90 0.75 0.78 0.96 1.02 1.13 1.33 1.61 1.95 2.36 2.55 2.63 2.55 2.49 2.44 2.43 2.59 2.58 2.34 2.15 1.85 1.71 1.64 1.53 1.57 1.59 1.41 1.33
0.03 0.03 0.03 0.04 0.05 0.05 0.05 0.04 0.05 0.08 0.13 0.27 0.48 0.82 1.23 1.21 1.18 1.02 0.89 0.95 0.90 0.93 0.99 1.14 1.25 1.46 1.74 1.99 2.04 2.00 2.23 2.32 2.32 2.29 2.23 2.21 1.94 1.74 1.65 1.74 1.93 1.82 1.55 1.29
0.05 0.05 0.04 0.03 0.04 0.04 0.04 0.05 0.12 0.25 0.37 0.70 0.69 0.74 1.09 1.06 1.02 1.02 0.87 0.73 0.69 0.71 0.75 0.93 0.98 1.04 1.17 1.32 1.42 1.52 1.76 1.97 2.03 1.98 1.98 2.01 1.97 1.87 1.65 1.60 1.64 1.57 1.43 1.26
0.14 0.12 0.09 0.05 0.05 0.05 0.05 0.09 0.32 0.69 1.01 1.18 0.73 0.71 0.93 0.81 0.82 0.90 0.71 0.49 0.44 0.52 0.55 0.66 0.73 0.81 0.91 0.94 1.01 1.15 1.35 1.51 1.64 1.70 1.73 1.79 1.95 1.85 1.62 1.43 1.43 1.38 1.23 1.12
0.15 0.18 0.10 0.05 0.05 0.06 0.06 0.07 0.19 0.34 0.50 0.71 0.75 1.11 1.05 0.68 0.63 0.55 0.40 0.30 0.28 0.43 0.47 0.45 0.50 0.56 0.70 0.76 0.82 0.93 1.00 1.10 1.23 1.45 1.65 1.61 1.70 1.55 1.42 1.52 1.42 1.27 1.08 1.07
0.07 0.06 0.05 0.05 0.05 0.07 0.05 0.05 0.06 0.10 0.16 0.44 0.83 1.19 0.99 0.58 0.54 0.41 0.28 0.23 0.27 0.34 0.45 0.40 0.39 0.43 0.46 0.52 0.59 0.68 0.85 1.01 1.07 1.18 1.41 1.49 1.44 1.40 1.46 1.56 1.49 1.36 1.25 1.13
0.04 0.02 0.04 0.05 0.05 0.07 0.06 0.06 0.06 0.07 0.15 0.34 0.70 1.06 1.13 0.87 0.64 0.43 0.33 0.33 0.41 0.39 0.47 0.51 0.38 0.37 0.40 0.40 0.48 0.59 0.74 0.95 1.14 1.15 1.14 1.17 1.36 1.42 1.51 1.52 1.36 1.31 1.25 1.21
0.04 0.02 0.03 0.04 0.06 0.08 0.08 0.08 0.09 0.10 0.12 0.22 0.53 0.78 0.70 0.69 0.52 0.42 0.43 0.51 0.40 0.38 0.44 0.47 0.35 0.30 0.35 0.38 0.45 0.58 0.70 0.96 1.15 1.07 1.09 1.18 1.34 1.41 1.41 1.51 1.47 1.37 1.29 1.26
0.05 0.03 0.04 0.08 0.11 0.10 0.10 0.10 0.11 0.14 0.16 0.17 0.28 0.49 0.43 0.50 0.48 0.56 0.61 0.57 0.48 0.47 0.46 0.49 0.43 0.45 0.47 0.50 0.55 0.66 0.74 0.88 0.99 1.03 1.12 1.18 1.28 1.32 1.27 1.30 1.37 1.41 1.32 1.25
0.06 0.05 0.07 0.21 0.31 0.22 0.14 0.10 0.11 0.13 0.13 0.16 0.31 0.50 0.44 0.48 0.50 0.55 0.59 0.54 0.61 0.64 0.58 0.55 0.58 0.62 0.57 0.57 0.68 0.77 0.83 0.86 0.96 1.13 1.14 1.11 1.16 1.11 1.11 1.15 1.20 1.28 1.31 1.33
0.07 0.06 0.08 0.22 0.33 0.35 0.26 0.17 0.16 0.13 0.14 0.17 0.24 0.44 0.44 0.56 0.70 0.62 0.67 0.62 0.57 0.58 0.56 0.50 0.53 0.54 0.57 0.61 0.67 0.76 0.83 0.88 0.97 0.99 1.00 1.01 1.02 1.04 1.11 1.16 1.17 1.19 1.19 1.27
0.09 0.07 0.05 0.09 0.17 0.20 0.21 0.20 0.18 0.13 0.12 0.17 0.22 0.35 0.50 0.60 0.73 0.66 0.65 0.71 0.73 0.60 0.53 0.43 0.39 0.49 0.61 0.67 0.68 0.73 0.81 0.89 1.02 1.03 0.99 0.99 1.01 1.03 1.05 1.07 1.07 1.09 1.15 1.18
0.15 0.11 0.10 0.11 0.14 0.14 0.16 0.18 0.15 0.11 0.09 0.10 0.18 0.36 0.52 0.66 0.68 0.64 0.55 0.53 0.67 0.61 0.53 0.50 0.48 0.56 0.61 0.62 0.62 0.60 0.63 0.75 0.92 0.98 1.03 1.05 1.05 0.99 1.03 1.04 1.02 1.06 1.16 1.27
0.28 0.22 0.21 0.21 0.17 0.18 0.25 0.20 0.17 0.14 0.12 0.13 0.23 0.37 0.53 0.67 0.59 0.63 0.59 0.50 0.50 0.48 0.47 0.54 0.57 0.61 0.60 0.59 0.55 0.55 0.55 0.67 0.94 1.02 1.00 1.08 1.16 1.08 1.14 1.17 1.16 1.19 1.26 1.36
0.38 0.39 0.31 0.28 0.31 0.38 0.29 0.23 0.22 0.24 0.25 0.23 0.27 0.38 0.60 0.77 0.66 0.60 0.59 0.57 0.53 0.43 0.45 0.53 0.54 0.54 0.56 0.56 0.56 0.54 0.55 0.63 0.85 1.01 1.05 1.22 1.36 1.27 1.28 1.29 1.32 1.38 1.45 1.49
0.39 0.47 0.47 0.42 0.44 0.46 0.38 0.34 0.36 0.44 0.53 0.45 0.46 0.58 0.64 0.60 0.58 0.61 0.56 0.51 0.50 0.50 0.54 0.53 0.56 0.58 0.63 0.68 0.66 0.63 0.72 0.84 0.97 1.08 1.19 1.38 1.53 1.59 1.57 1.53 1.62 1.67 1.70 1.75
0.35 0.45 0.55 0.57 0.64 0.72 0.65 0.52 0.48 0.60 0.95 0.77 0.62 0.64 0.64 0.61 0.74 0.75 0.56 0.51 0.50 0.53 0.59 0.63 0.70 0.70 0.70 0.77 0.77 0.79 0.89 1.07 1.20 1.23 1.26 1.34 1.51 1.61 1.65 1.65 1.81 1.95 2.00 2.00
0.53 0.54 0.57 0.64 0.74 0.73 0.65 0.58 0.62 1.06 1.39 0.98 0.84 0.86 0.90 0.87 0.81 0.70 0.61 0.61 0.58 0.53 0.55 0.58 0.62 0.69 0.73 0.79 0.86 0.97 1.05 1.16 1.19 1.19 1.22 1.29 1.51 1.77 1.81 1.87 1.94 2.05 2.13 2.18
0.71 0.71 0.69 0.75 0.97 1.07 0.70 0.63 0.96 1.28 1.19 1.21 1.17 1.16 1.10 0.96 0.77 0.65 0.61 0.64 0.59 0.57 0.61 0.61 0.60 0.66 0.73 0.85 1.00 1.09 1.11 1.15 1.21 1.22 1.26 1.37 1.60 1.70 1.80 1.95 2.00 2.15 2.27 2.28
0.80 0.89 0.87 0.96 1.16 1.06 0.84 0.91 0.95 1.01 1.13 1.19 1.12 1.12 1.09 1.04 0.91 0.78 0.71 0.68 0.67 0.66 0.66 0.72 0.71 0.72 0.77 0.89 1.09 1.22 1.22 1.22 1.21 1.18 1.21 1.31 1.45 1.54 1.67 1.75 1.74 1.83 1.96 1.98
0.92 0.82 1.02 1.34 1.33 1.14 0.98 0.92 0.92 0.88 0.94 0.95 0.90 0.86 0.85 0.86 0.83 0.75 0.71 0.74 0.77 0.81 0.77 0.77 0.76 0.78 0.81 0.86 1.04 1.17 1.17 1.18 1.18 1.14 1.10 1.19 1.35 1.43 1.50 1.62 1.64 1.73 1.80 1.86
1.12 1.08 1.28 1.64 1.61 1.40 1.26 1.10 1.08 0.95 0.92 0.90 0.85 0.81 0.75 0.66 0.66 0.65 0.59 0.56 0.59 0.65 0.68 0.68 0.69 0.74 0.75 0.80 0.98 1.13 1.15 1.16 1.20 1.16 1.11 1.17 1.28 1.37 1.45 1.56 1.65 1.67 1.70 1.68
1.04 1.21 1.48 1.69 1.56 1.47 1.46 1.16 1.10 1.15 1.03 0.89 0.86 0.79 0.72 0.63 0.57 0.56 0.55 0.51 0.51 0.56 0.63 0.66 0.70 0.70 0.66 0.72 0.84 0.95 1.12 1.26 1.31 1.23 1.15 1.13 1.14 1.21 1.28 1.36 1.37 1.30 1.27 1.26

GEFSCGP_prec_meanprecacc_198.txt.gz
Total_Precipitation_Accumulation
0.00 0.01 0.01 0.02 0.02 0.03 0.07 0.09 0.19 0.25 0.19 0.20 0.36 0.55 0.69 0.81 1.05 1.18 1.20 1.15 1.18 1.46 1.88 2.10 2.41 2.89 3.67 4.41 5.09 5.20 5.42 4.90 4.25 3.67 3.24 3.14 2.95 2.64 2.55 2.45 2.27 2.12 1.91 1.78
0.02 0.04 0.03 0.02 0.03 0.05 0.09 0.12 0.20 0.22 0.15 0.18 0.36 0.63 0.83 0.92 0.91 0.99 1.02 1.07 1.18 1.54 1.97 2.34 2.88 3.26 3.27 3.79 4.51 4.57 4.25 4.00 3.53 3.12 2.92 2.76 2.68 2.38 2.21 2.08 2.06 1.86 1.72 1.68
0.04 0.05 0.03 0.03 0.05 0.10 0.12 0.14 0.18 0.17 0.16 0.23 0.42 0.80 1.10 1.05 0.80 0.72 0.78 0.86 1.01 1.35 1.86 2.30 2.71 3.13 3.09 3.45 3.55 3.19 3.01 3.06 2.97 2.78 2.66 2.54 2.50 2.31 2.05 1.86 1.84 1.70 1.49 1.47
0.03 0.03 0.03 0.04 0.06 0.07 0.08 0.08 0.07 0.07 0.14 0.30 0.44 0.99 1.40 1.18 0.90 0.75 0.78 0.96 1.02 1.13 1.33 1.61 1.95 2.36 2.55 2.63 2.56 2.51 2.47 2.48 2.64 2.64 2.40 2.21 1.92 1.79 1.72 1.60 1.64 1.65 1.44 1.35
0.03 0.03 0.03 0.04 0.05 0.05 0.05 0.04 0.05 0.08 0.13 0.27 0.48 0.83 1.24 1.22 1.18 1.02 0.89 0.95 0.90 0.93 0.99 1.14 1.26 1.46 1.74 1.99 2.04 2.01 2.26 2.36 2.36 2.33 2.28 2.25 1.99 1.80 1.72 1.82 2.01 1.90 1.61 1.33
0.05 0.05 0.04 0.03 0.04 0.04 0.04 0.05 0.12 0.25 0.37 0.70 0.69 0.74 1.10 1.06 1.02 1.02 0.87 0.73 0.69 0.71 0.75 0.93 0.99 1.04 1.17 1.32 1.43 1.53 1.78 2.00 2.06 2.02 2.02 2.05 2.04 1.97 1.76 1.70 1.74 1.65 1.51 1.33
0.14 0.12 0.09 0.05 0.05 0.05 0.05 0.09 0.32 0.69 1.01 1.18 0.73 0.71 0.93 0.81 0.82 0.90 0.71 0.49 0.44 0.52 0.55 0.66 0.73 0.81 0.92 0.95 1.02 1.18 1.37 1.54 1.67 1.75 1.79 1.85 2.03 1.93 1.70 1.50 1.51 1.47 1.31 1.18
0.15 0.18 0.10 0.05 0.05 0.06 0.06 0.07 0.19 0.34 0.50 0.71 0.75 1.11 1.05 0.68 0.63 0.56 0.40 0.31 0.28 0.43 0.47 0.45 0.50 0.56 0.71 0.77 0.84 0.97 1.05 1.13 1.27 1.52 1.74 1.70 1.78 1.62 1.48 1.59 1.50 1.35 1.15 1.14
0.07 0.06 0.05 0.05 0.05 0.07 0.05 0.05 0.06 0.10 0.16 0.45 0.84 1.20 0.99 0.58 0.54 0.41 0.28 0.23 0.27 0.34 0.45 0.40 0.39 0.43 0.47 0.53 0.61 0.72 0.93 1.07 1.12 1.23 1.46 1.55 1.51 1.48 1.54 1.65 1.57 1.44 1.35 1.22
0.04 0.02 0.04 0.05 0.05 0.07 0.06 0.06 0.06 0.08 0.15 0.34 0.71 1.07 1.13 0.87 0.64 0.43 0.33 0.33 0.41 0.39 0.47 0.52 0.39 0.38 0.41 0.41 0.50 0.61 0.78 0.99 1.18 1.18 1.17 1.21 1.43 1.49 1.57 1.58 1.44 1.40 1.33 1.29
0.04 0.02 0.03 0.04 0.06 0.08 0.08 0.08 0.09 0.10 0.13 0.22 0.54 0.79 0.70 0.69 0.52 0.42 0.43 0.51 0.40 0.38 0.45 0.48 0.36 0.31 0.35 0.39 0.46 0.59 0.73 0.99 1.18 1.09 1.10 1.21 1.38 1.46 1.48 1.59 1.55 1.44 1.35 1.32
0.05 0.03 0.04 0.08 0.11 0.10 0.10 0.10 0.11 0.14 0.16 0.17 0.28 0.50 0.43 0.50 0.48 0.56 0.61 0.57 0.49 0.48 0.46 0.49 0.43 0.45 0.47 0.51 0.56 0.66 0.75 0.88 1.00 1.05 1.13 1.19 1.30 1.37 1.37 1.40 1.45 1.49 1.40 1.33
0.06 0.05 0.07 0.21 0.31 0.22 0.14 0.10 0.11 0.13 0.13 0.16 0.31 0.51 0.44 0.48 0.50 0.56 0.59 0.54 0.61 0.64 0.58 0.56 0.59 0.65 0.60 0.58 0.69 0.77 0.84 0.86 0.97 1.14 1.15 1.11 1.18 1.16 1.18 1.23 1.27 1.35 1.40 1.42
0.07 0.06 0.08 0.22 0.33 0.35 0.26 0.17 0.16 0.13 0.14 0.17 0.24 0.45 0.44 0.56 0.70 0.62 0.67 0.62 0.57 0.59 0.56 0.50 0.53 0.56 0.59 0.62 0.68 0.77 0.84 0.88 0.97 0.99 1.01 1.03 1.03 1.06 1.15 1.22 1.24 1.27 1.27 1.36
0.09 0.07 0.05 0.09 0.17 0.20 0.21 0.20 0.18 0.13 0.12 0.17 0.22 0.35 0.50 0.60 0.73 0.67 0.65 0.71 0.73 0.60 0.53 0.43 0.39 0.49 0.61 0.68 0.69 0.74 0.82 0.90 1.03 1.04 1.01 1.01 1.03 1.05 1.08 1.12 1.12 1.14 1.20 1.23
0.15 0.11 0.10 0.11 0.14 0.14 0.16 0.18 0.15 0.11 0.09 0.10 0.18 0.36 0.52 0.66 0.68 0.64 0.55 0.53 0.68 0.62 0.53 0.51 0.48 0.56 0.61 0.62 0.62 0.61 0.64 0.76 0.94 1.00 1.06 1.09 1.09 1.03 1.06 1.08 1.06 1.08 1.17 1.29
0.28 0.22 0.21 0.21 0.17 0.18 0.25 0.20 0.17 0.14 0.12 0.13 0.23 0.37 0.53 0.67 0.60 0.63 0.59 0.50 0.51 0.50 0.48 0.54 0.57 0.61 0.60 0.59 0.56 0.55 0.56 0.68 0.96 1.05 1.03 1.12 1.20 1.12 1.18 1.21 1.19 1.21 1.27 1.37
0.38 0.39 0.31 0.28 0.31 0.38 0.29 0.23 0.22 0.24 0.25 0.23 0.27 0.38 0.60 0.77 0.67 0.60 0.59 0.57 0.53 0.43 0.45 0.53 0.54 0.55 0.57 0.57 0.56 0.54 0.56 0.64 0.87 1.04 1.08 1.26 1.40 1.31 1.31 1.33 1.34 1.40 1.46 1.50
0.39 0.47 0.47 0.42 0.44 0.46 0.38 0.34 0.36 0.44 0.54 0.45 0.46 0.59 0.64 0.63 0.63 0.63 0.56 0.51 0.50 0.50 0.54 0.54 0.57 0.58 0.64 0.68 0.66 0.64 0.74 0.86 0.98 1.11 1.22 1.42 1.57 1.62 1.59 1.55 1.64 1.68 1.71 1.75
0.35 0.45 0.55 0.57 0.64 0.73 0.66 0.53 0.48 0.61 0.96 0.79 0.64 0.66 0.68 0.68 0.84 0.81 0.57 0.51 0.51 0.54 0.60 0.64 0.71 0.71 0.71 0.78 0.78 0.80 0.90 1.08 1.21 1.25 1.28 1.40 1.56 1.64 1.66 1.67 1.82 1.97 2.00 2.00
0.53 0.54 0.57 0.64 0.74 0.74 0.66 0.59 0.62 1.08 1.42 1.01 0.86 0.88 0.92 0.91 0.87 0.73 0.62 0.65 0.59 0.53 0.56 0.59 0.63 0.70 0.74 0.80 0.87 0.98 1.06 1.17 1.20 1.21 1.23 1.32 1.53 1.78 1.81 1.87 1.95 2.06 2.13 2.18
0.71 0.72 0.70 0.75 0.98 1.08 0.71 0.63 0.97 1.30 1.21 1.23 1.19 1.17 1.11 0.97 0.78 0.66 0.62 0.67 0.61 0.58 0.61 0.62 0.61 0.68 0.75 0.87 1.02 1.10 1.13 1.16 1.22 1.24 1.27 1.37 1.61 1.71 1.80 1.96 2.01 2.16 2.28 2.29
0.80 0.90 0.89 0.98 1.18 1.09 0.85 0.92 0.96 1.01 1.14 1.20 1.14 1.14 1.11 1.05 0.91 0.78 0.72 0.69 0.67 0.67 0.68 0.73 0.72 0.74 0.80 0.92 1.12 1.24 1.24 1.24 1.23 1.21 1.24 1.33 1.46 1.55 1.68 1.76 1.74 1.83 1.97 1.99
0.93 0.82 1.02 1.36 1.36 1.18 1.00 0.92 0.92 0.88 0.95 0.96 0.93 0.89 0.86 0.87 0.83 0.76 0.72 0.75 0.78 0.82 0.78 0.79 0.79 0.81 0.84 0.90 1.07 1.20 1.19 1.20 1.21 1.16 1.13 1.22 1.38 1.45 1.53 1.64 1.65 1.74 1.81 1.87
1.17 1.10 1.29 1.67 1.64 1.42 1.30 1.13 1.10 0.97 0.93 0.91 0.87 0.83 0.76 0.67 0.66 0.65 0.60 0.57 0.61 0.67 0.70 0.70 0.71 0.76 0.78 0.83 1.00 1.15 1.16 1.18 1.22 1.18 1.13 1.21 1.32 1.41 1.47 1.58 1.66 1.68 1.71 1.69
1.08 1.24 1.51 1.74 1.59 1.48 1.48 1.20 1.16 1.21 1.06 0.90 0.87 0.80 0.73 0.64 0.58 0.57 0.56 0.53 0.53 0.59 0.66 0.69 0.72 0.71 0.68 0.73 0.87 0.97 1.14 1.28 1.34 1.25 1.16 1.14 1.15 1.24 1.31 1.39 1.38 1.31 1.28 1.26

GEFSCGP_prec_meanprecacc_204.txt.gz
Total_Precipitation_Accumulation
0.00 0.01 0.01 0.02 0.02 0.04 0.07 0.10 0.19 0.26 0.20 0.22 0.39 0.57 0.70 0.82 1.06 1.18 1.21 1.15 1.18 1.47 1.88 2.11 2.41 2.90 3.68 4.41 5.09 5.21 5.43 4.91 4.26 3.69 3.27 3.17 2.98 2.67 2.58 2.47 2.29 2.14 1.92 1.79
0.02 0.04 0.03 0.02 0.03 0.05 0.09 0.13 0.21 0.24 0.17 0.20 0.39 0.67 0.85 0.94 0.93 0.99 1.02 1.07 1.18 1.54 1.98 2.35 2.89 3.27 3.28 3.80 4.51 4.57 4.26 4.01 3.54 3.13 2.94 2.77 2.70 2.40 2.23 2.11 2.09 1.90 1.75 1.71
0.04 0.05 0.03 0.03 0.05 0.10 0.12 0.14 0.19 0.18 0.17 0.25 0.45 0.84 1.14 1.07 0.81 0.73 0.79 0.87 1.01 1.36 1.86 2.30 2.71 3.14 3.10 3.46 3.56 3.19 3.03 3.08 2.98 2.80 2.68 2.57 2.53 2.33 2.08 1.89 1.87 1.73 1.53 1.50
0.03 0.03 0.03 0.04 0.06 0.07 0.08 0.08 0.07 0.08 0.15 0.31 0.45 1.02 1.43 1.23 0.93 0.76 0.79 0.96 1.02 1.13 1.33 1.61 1.95 2.37 2.56 2.64 2.57 2.52 2.48 2.50 2.67 2.67 2.43 2.24 1.94 1.81 1.74 1.62 1.67 1.68 1.47 1.38
0.03 0.03 0.03 0.04 0.05 0.05 0.05 0.04 0.05 0.09 0.13 0.28 0.49 0.85 1.27 1.25 1.20 1.04 0.90 0.95 0.90 0.94 0.99 1.14 1.26 1.46 1.74 2.00 2.06 2.04 2.28 2.37 2.39 2.36 2.30 2.28 2.02 1.82 1.75 1.86 2.05 1.95 1.64 1.37
0.05 0.05 0.04 0.03 0.04 0.04 0.04 0.05 0.12 0.25 0.38 0.70 0.70 0.75 1.12 1.08 1.04 1.03 0.88 0.74 0.70 0.71 0.76 0.94 0.99 1.04 1.17 1.34 1.46 1.57 1.82 2.02 2.08 2.04 2.04 2.08 2.07 2.00 1.80 1.75 1.79 1.70 1.54 1.37
0.14 0.12 0.09 0.05 0.05 0.05 0.05 0.09 0.32 0.69 1.01 1.19 0.75 0.72 0.94 0.82 0.83 0.90 0.72 0.50 0.46 0.54 0.56 0.67 0.73 0.82 0.93 0.97 1.07 1.25 1.45 1.59 1.70 1.78 1.83 1.89 2.06 1.97 1.73 1.53 1.55 1.50 1.34 1.24
0.15 0.18 0.10 0.05 0.05 0.06 0.06 0.07 0.19 0.35 0.50 0.71 0.77 1.13 1.07 0.68 0.64 0.57 0.41 0.32 0.30 0.45 0.48 0.46 0.50 0.57 0.72 0.78 0.86 1.02 1.14 1.20 1.31 1.54 1.76 1.73 1.83 1.68 1.54 1.63 1.54 1.40 1.20 1.21
0.07 0.06 0.05 0.05 0.05 0.07 0.05 0.05 0.06 0.10 0.16 0.45 0.85 1.24 1.04 0.62 0.56 0.44 0.30 0.24 0.28 0.35 0.46 0.41 0.40 0.44 0.47 0.53 0.61 0.78 1.05 1.12 1.14 1.24 1.47 1.56 1.54 1.54 1.60 1.72 1.65 1.52 1.42 1.30
0.04 0.02 0.04 0.05 0.06 0.07 0.06 0.06 0.06 0.08 0.16 0.34 0.72 1.11 1.19 0.92 0.67 0.46 0.35 0.34 0.43 0.41 0.50 0.55 0.42 0.39 0.41 0.41 0.50 0.62 0.79 1.00 1.18 1.18 1.18 1.22 1.45 1.51 1.62 1.65 1.53 1.50 1.46 1.43
0.04 0.02 0.03 0.05 0.07 0.08 0.08 0.08 0.09 0.10 0.13 0.22 0.55 0.81 0.73 0.71 0.55 0.43 0.45 0.54 0.44 0.42 0.49 0.53 0.38 0.32 0.36 0.39 0.47 0.60 0.74 1.00 1.18 1.10 1.11 1.22 1.39 1.48 1.53 1.66 1.63 1.53 1.49 1.49
0.05 0.03 0.04 0.08 0.11 0.11 0.10 0.10 0.11 0.15 0.16 0.17 0.28 0.50 0.44 0.51 0.50 0.58 0.63 0.59 0.53 0.51 0.51 0.53 0.45 0.47 0.49 0.54 0.57 0.68 0.76 0.90 1.01 1.06 1.14 1.20 1.31 1.38 1.41 1.45 1.52 1.57 1.53 1.56
0.06 0.05 0.07 0.21 0.31 0.22 0.15 0.10 0.11 0.13 0.13 0.16 0.31 0.51 0.45 0.49 0.52 0.57 0.60 0.58 0.64 0.66 0.60 0.57 0.60 0.67 0.64 0.65 0.74 0.80 0.86 0.88 0.98 1.15 1.16 1.12 1.18 1.17 1.21 1.28 1.34 1.44 1.50 1.55
0.07 0.06 0.08 0.22 0.33 0.35 0.26 0.17 0.16 0.13 0.14 0.17 0.24 0.45 0.45 0.56 0.70 0.64 0.69 0.64 0.58 0.60 0.58 0.52 0.57 0.61 0.65 0.67 0.71 0.79 0.85 0.91 0.99 1.00 1.02 1.04 1.05 1.09 1.18 1.27 1.31 1.33 1.32 1.40
0.09 0.07 0.05 0.09 0.17 0.20 0.21 0.20 0.18 0.13 0.12 0.17 0.22 0.35 0.51 0.61 0.74 0.68 0.68 0.74 0.75 0.61 0.54 0.45 0.45 0.53 0.63 0.69 0.70 0.75 0.82 0.91 1.04 1.06 1.03 1.04 1.08 1.09 1.13 1.16 1.17 1.19 1.26 1.27
0.15 0.11 0.10 0.11 0.14 0.14 0.16 0.18 0.15 0.11 0.09 0.10 0.18 0.36 0.53 0.66 0.69 0.65 0.56 0.55 0.69 0.63 0.54 0.52 0.52 0.59 0.63 0.64 0.64 0.62 0.65 0.77 0.95 1.03 1.12 1.16 1.15 1.08 1.12 1.13 1.10 1.13 1.25 1.34
0.28 0.22 0.21 0.21 0.17 0.18 0.25 0.21 0.17 0.14 0.12 0.13 0.24 0.37 0.54 0.67 0.60 0.64 0.59 0.52 0.52 0.51 0.50 0.57 0.62 0.64 0.63 0.62 0.58 0.57 0.57 0.70 0.99 1.09 1.08 1.20 1.28 1.19 1.25 1.28 1.24 1.24 1.29 1.39
0.38 0.39 0.31 0.28 0.31 0.38 0.29 0.24 0.22 0.25 0.25 0.24 0.27 0.39 0.60 0.78 0.68 0.62 0.62 0.61 0.55 0.45 0.49 0.57 0.58 0.59 0.60 0.59 0.59 0.58 0.58 0.66 0.91 1.08 1.13 1.33 1.48 1.39 1.39 1.40 1.40 1.44 1.48 1.51
0.39 0.47 0.47 0.42 0.44 0.46 0.39 0.35 0.36 0.45 0.55 0.46 0.47 0.61 0.66 0.64 0.66 0.71 0.66 0.60 0.55 0.54 0.58 0.58 0.62 0.64 0.69 0.74 0.75 0.74 0.79 0.89 1.02 1.15 1.27 1.50 1.70 1.73 1.68 1.62 1.68 1.71 1.73 1.76
0.35 0.45 0.55 0.57 0.64 0.73 0.66 0.53 0.49 0.62 0.98 0.80 0.65 0.68 0.70 0.70 0.86 0.88 0.63 0.54 0.53 0.56 0.64 0.74 0.82 0.82 0.82 0.88 0.86 0.88 0.97 1.13 1.25 1.28 1.31 1.44 1.66 1.73 1.71 1.70 1.84 1.98 2.02 2.01
0.54 0.55 0.57 0.64 0.74 0.74 0.67 0.59 0.63 1.09 1.44 1.02 0.88 0.90 0.94 0.93 0.88 0.76 0.67 0.69 0.62 0.57 0.64 0.70 0.71 0.80 0.89 0.96 0.98 1.08 1.12 1.20 1.23 1.24 1.26 1.35 1.57 1.88 1.86 1.90 1.97 2.08 2.15 2.19
0.71 0.73 0.70 0.75 0.98 1.09 0.72 0.64 0.98 1.33 1.23 1.25 1.21 1.19 1.13 0.98 0.80 0.69 0.68 0.73 0.64 0.61 0.69 0.69 0.66 0.74 0.85 0.98 1.12 1.18 1.20 1.22 1.28 1.29 1.32 1.40 1.65 1.75 1.83 1.98 2.04 2.18 2.29 2.29
0.81 0.91 0.91 1.00 1.21 1.11 0.87 0.94 0.98 1.05 1.18 1.24 1.17 1.17 1.14 1.08 0.94 0.83 0.79 0.74 0.70 0.69 0.72 0.78 0.77 0.80 0.87 0.99 1.18 1.31 1.30 1.30 1.29 1.26 1.28 1.37 1.51 1.59 1.74 1.82 1.80 1.86 1.97 1.99
0.96 0.84 1.05 1.39 1.39 1.21 1.04 0.95 0.95 0.92 0.99 1.00 0.96 0.92 0.92 0.91 0.87 0.83 0.82 0.83 0.85 0.88 0.84 0.85 0.84 0.87 0.91 0.95 1.13 1.27 1.25 1.26 1.27 1.22 1.18 1.26 1.43 1.52 1.62 1.73 1.70 1.77 1.83 1.88
1.23 1.15 1.35 1.71 1.69 1.49 1.37 1.19 1.14 1.00 0.97 0.95 0.92 0.89 0.82 0.72 0.70 0.70 0.67 0.68 0.74 0.82 0.84 0.79 0.78 0.82 0.83 0.87 1.06 1.21 1.22 1.24 1.29 1.24 1.18 1.25 1.36 1.47 1.54 1.63 1.70 1.72 1.74 1.72
1.16 1.36 1.63 1.84 1.68 1.57 1.56 1.27 1.21 1.26 1.14 1.00 1.01 0.96 0.85 0.71 0.62 0.60 0.60 0.59 0.60 0.67 0.77 0.77 0.80 0.78 0.74 0.81 0.96 1.07 1.22 1.36 1.40 1.30 1.21 1.18 1.18 1.28 1.35 1.42 1.42 1.35 1.32 1.30

GEFSCGP_prec_meanprecacc_210.txt.gz
Total_Precipitation_Accumulation
0.00 0.01 0.01 0.02 0.02 0.04 0.07 0.10 0.19 0.26 0.20 0.22 0.39 0.57 0.71 0.83 1.06 1.18 1.21 1.16 1.21 1.49 1.90 2.12 2.42 2.92 3.70 4.43 5.11 5.22 5.44 4.93 4.27 3.71 3.30 3.20 3.00 2.70 2.60 2.49 2.32 2.16 1.94 1.81
0.02 0.04 0.03 0.02 0.03 0.05 0.10 0.13 0.22 0.24 0.17 0.20 0.39 0.67 0.85 0.94 0.93 0.99 1.04 1.10 1.21 1.57 1.99 2.36 2.90 3.29 3.30 3.82 4.53 4.59 4.28 4.02 3.56 3.16 2.96 2.79 2.73 2.42 2.24 2.13 2.11 1.92 1.77 1.73
0.04 0.05 0.03 0.03 0.05 0.10 0.12 0.14 0.19 0.19 0.17 0.25 0.45 0.84 1.14 1.08 0.81 0.73 0.79 0.89 1.03 1.37 1.87 2.30 2.72 3.15 3.12 3.49 3.58 3.21 3.04 3.09 3.01 2.84 2.70 2.58 2.55 2.36 2.11 1.92 1.89 1.75 1.55 1.52
0.03 0.03 0.03 0.04 0.06 0.07 0.08 0.08 0.07 0.08 0.15 0.31 0.46 1.02 1.43 1.23 0.93 0.76 0.79 0.96 1.03 1.14 1.33 1.62 1.96 2.38 2.57 2.66 2.58 2.53 2.50 2.52 2.69 2.70 2.45 2.26 1.96 1.84 1.76 1.65 1.70 1.71 1.49 1.41
0.03 0.03 0.03 0.04 0.05 0.05 0.05 0.04 0.05 0.09 0.13 0.28 0.49 0.85 1.27 1.26 1.21 1.04 0.91 0.96 0.91 0.94 0.99 1.15 1.26 1.48 1.76 2.01 2.08 2.06 2.31 2.39 2.42 2.39 2.32 2.30 2.03 1.84 1.78 1.89 2.07 1.97 1.67 1.40
0.05 0.05 0.04 0.03 0.04 0.04 0.04 0.05 0.12 0.26 0.38 0.71 0.70 0.75 1.12 1.08 1.04 1.03 0.88 0.75 0.71 0.72 0.77 0.95 1.00 1.06 1.19 1.35 1.48 1.59 1.84 2.05 2.11 2.07 2.07 2.10 2.10 2.03 1.84 1.78 1.81 1.71 1.56 1.40
0.14 0.12 0.09 0.05 0.05 0.05 0.06 0.09 0.32 0.69 1.02 1.19 0.75 0.72 0.94 0.82 0.83 0.91 0.72 0.50 0.47 0.55 0.60 0.73 0.76 0.84 0.95 0.98 1.08 1.27 1.47 1.62 1.74 1.80 1.85 1.91 2.07 1.99 1.76 1.56 1.58 1.53 1.37 1.27
0.15 0.18 0.10 0.05 0.05 0.06 0.06 0.07 0.19 0.35 0.50 0.71 0.77 1.13 1.07 0.68 0.64 0.57 0.42 0.32 0.30 0.47 0.55 0.59 0.55 0.58 0.73 0.79 0.87 1.03 1.16 1.24 1.35 1.56 1.77 1.74 1.84 1.69 1.56 1.66 1.57 1.44 1.24 1.26
0.07 0.07 0.06 0.05 0.05 0.07 0.05 0.05 0.06 0.10 0.16 0.45 0.85 1.24 1.04 0.62 0.56 0.44 0.31 0.25 0.29 0.37 0.52 0.50 0.44 0.45 0.48 0.54 0.62 0.79 1.06 1.14 1.17 1.25 1.47 1.56 1.55 1.56 1.61 1.74 1.68 1.56 1.47 1.35
0.04 0.03 0.04 0.05 0.06 0.07 0.06 0.06 0.06 0.08 0.16 0.34 0.72 1.11 1.19 0.92 0.67 0.46 0.36 0.35 0.43 0.46 0.58 0.61 0.45 0.40 0.42 0.42 0.51 0.62 0.80 1.01 1.19 1.18 1.18 1.22 1.45 1.52 1.63 1.67 1.56 1.54 1.50 1.49
0.04 0.02 0.03 0.05 0.07 0.08 0.08 0.08 0.09 0.10 0.13 0.22 0.55 0.81 0.73 0.71 0.55 0.43 0.45 0.54 0.44 0.44 0.50 0.55 0.39 0.32 0.36 0.39 0.47 0.60 0.74 1.00 1.19 1.10 1.12 1.23 1.39 1.49 1.54 1.67 1.65 1.56 1.52 1.54
0.05 0.03 0.04 0.08 0.11 0.11 0.10 0.11 0.11 0.15 0.16 0.17 0.29 0.50 0.44 0.51 0.50 0.58 0.63 0.59 0.53 0.51 0.52 0.54 0.45 0.47 0.50 0.54 0.58 0.68 0.77 0.90 1.01 1.06 1.15 1.21 1.31 1.39 1.42 1.46 1.53 1.60 1.56 1.61
0.06 0.05 0.07 0.21 0.31 0.22 0.15 0.11 0.12 0.13 0.13 0.16 0.31 0.51 0.45 0.50 0.52 0.57 0.60 0.58 0.65 0.66 0.61 0.58 0.60 0.67 0.64 0.65 0.74 0.80 0.86 0.88 0.99 1.16 1.16 1.13 1.19 1.19 1.22 1.29 1.36 1.48 1.53 1.58
0.07 0.06 0.08 0.22 0.33 0.35 0.26 0.17 0.16 0.13 0.14 0.17 0.24 0.45 0.45 0.56 0.70 0.64 0.69 0.64 0.59 0.60 0.59 0.53 0.57 0.61 0.66 0.68 0.72 0.80 0.86 0.91 0.99 1.01 1.02 1.05 1.08 1.12 1.21 1.29 1.32 1.37 1.36 1.43
0.09 0.07 0.05 0.09 0.17 0.20 0.21 0.20 0.18 0.13 0.12 0.17 0.22 0.35 0.51 0.61 0.74 0.68 0.68 0.74 0.75 0.62 0.54 0.45 0.45 0.54 0.63 0.70 0.71 0.77 0.84 0.91 1.04 1.06 1.04 1.08 1.14 1.13 1.16 1.19 1.20 1.22 1.30 1.31
0.15 0.11 0.10 0.11 0.14 0.14 0.16 0.18 0.15 0.11 0.09 0.10 0.18 0.36 0.53 0.66 0.69 0.65 0.56 0.56 0.70 0.63 0.54 0.52 0.52 0.59 0.63 0.64 0.66 0.68 0.68 0.78 0.96 1.04 1.15 1.23 1.22 1.12 1.15 1.16 1.14 1.18 1.30 1.38
0.28 0.22 0.21 0.21 0.17 0.18 0.25 0.21 0.18 0.15 0.12 0.13 0.24 0.37 0.54 0.67 0.60 0.64 0.60 0.53 0.52 0.52 0.50 0.57 0.63 0.65 0.64 0.63 0.60 0.59 0.59 0.72 1.01 1.11 1.13 1.25 1.32 1.23 1.28 1.31 1.29 1.29 1.34 1.43
0.38 0.39 0.31 0.28 0.31 0.38 0.29 0.24 0.23 0.25 0.26 0.24 0.28 0.39 0.61 0.78 0.68 0.63 0.63 0.62 0.56 0.46 0.49 0.58 0.59 0.60 0.61 0.61 0.62 0.62 0.64 0.70 0.94 1.12 1.17 1.38 1.53 1.43 1.44 1.45 1.45 1.48 1.52 1.54
0.39 0.47 0.47 0.42 0.44 0.47 0.39 0.35 0.36 0.45 0.56 0.47 0.48 0.61 0.66 0.65 0.66 0.72 0.67 0.61 0.56 0.55 0.58 0.59 0.63 0.65 0.70 0.76 0.78 0.78 0.86 0.95 1.09 1.21 1.32 1.54 1.74 1.78 1.73 1.68 1.74 1.77 1.77 1.79
0.35 0.45 0.55 0.57 0.64 0.73 0.66 0.53 0.49 0.62 0.99 0.81 0.66 0.69 0.71 0.70 0.86 0.88 0.63 0.55 0.53 0.57 0.65 0.75 0.84 0.83 0.84 0.92 0.91 0.94 1.03 1.21 1.34 1.38 1.39 1.50 1.70 1.78 1.75 1.74 1.87 2.01 2.03 2.02
0.54 0.55 0.57 0.64 0.74 0.74 0.67 0.59 0.63 1.09 1.44 1.03 0.89 0.90 0.94 0.94 0.89 0.77 0.68 0.70 0.63 0.59 0.66 0.72 0.73 0.83 0.93 1.03 1.09 1.18 1.22 1.29 1.34 1.35 1.38 1.47 1.69 1.97 1.91 1.93 1.99 2.09 2.15 2.19
0.72 0.73 0.70 0.75 0.98 1.09 0.72 0.64 0.99 1.33 1.23 1.25 1.22 1.19 1.14 0.99 0.81 0.70 0.68 0.74 0.65 0.62 0.70 0.70 0.69 0.79 0.94 1.12 1.29 1.33 1.29 1.32 1.41 1.42 1.44 1.54 1.76 1.86 1.91 2.02 2.07 2.19 2.30 2.30
0.82 0.92 0.91 1.00 1.21 1.11 0.87 0.94 0.99 1.06 1.19 1.24 1.17 1.18 1.15 1.10 0.96 0.85 0.81 0.77 0.71 0.71 0.73 0.80 0.80 0.84 0.94 1.08 1.29 1.41 1.40 1.40 1.40 1.37 1.37 1.45 1.59 1.66 1.79 1.87 1.83 1.88 1.99 2.00
0.97 0.85 1.06 1.39 1.40 1.22 1.04 0.96 0.96 0.94 1.01 1.02 0.98 0.94 0.93 0.93 0.90 0.86 0.85 0.86 0.88 0.90 0.86 0.88 0.88 0.91 0.96 1.03 1.21 1.34 1.32 1.34 1.38 1.31 1.26 1.35 1.52 1.63 1.73 1.80 1.77 1.83 1.88 1.92
1.24 1.16 1.35 1.72 1.70 1.49 1.38 1.21 1.17 1.04 1.00 0.98 0.94 0.91 0.85 0.76 0.75 0.74 0.71 0.72 0.78 0.86 0.90 0.86 0.85 0.89 0.90 0.94 1.13 1.28 1.30 1.33 1.41 1.37 1.30 1.36 1.46 1.56 1.67 1.73 1.78 1.79 1.80 1.77
1.17 1.37 1.63 1.84 1.69 1.58 1.58 1.29 1.23 1.29 1.17 1.04 1.04 1.00 0.90 0.76 0.69 0.67 0.66 0.65 0.67 0.76 0.88 0.90 0.92 0.91 0.88 0.93 1.06 1.18 1.35 1.50 1.54 1.45 1.38 1.32 1.27 1.35 1.42 1.48 1.47 1.40 1.36 1.34